NOAA Web Site Link Tides and Currents Home Page Transparent placeholder image

PORTS® Data Listing: 8638901 CBBT, Chesapeake Channel, VA

CO-OPS RAW PORTS DATA

************************      PRELIMINARY DATA      ************************** 

     THIS RAW DATA HAS NOT BEEN SUBJECT TO THE NATIONAL OCEAN SERVICE'S        
     QUALITY CONTROL OR QUALITY ASSURANCE PROCEDURES AND DOES NOT MEET         
     THE CRITERIA AND STANDARDS OF OFFICIAL NATIONAL OCEAN SERVICE             
     DATA.  IT IS RELEASED FOR LIMITED PUBLIC USE AS PRELIMINARY DATA TO       
     BE USED ONLY WITH APPROPRIATE CAUTION.                                    

************************      PRELIMINARY DATA      ************************** 


       CD   -   Calendar date
       T    -   Time
       TZ   -   Timezone
       PW   -   Predicted water level (feet above MLLW)
       OW   -   Observed water level (feet above MLLW)
       WS   -   Wind speed (knots)
       WD   -   Wind direction (degrees true)
       WG   -   Wind gust (knots)
       AT   -   Air temperature (degrees farenheit)
       WT   -   Water temperature (degrees farenheit)
       AP   -   Air pressure (millibars)
       SA   -   Salinty (PSU - Practical Salinity Units)
       SG   -   Specific gravity
       RH   -   Relative humidity
       AG   -   Air gap (feet)
       VI   -   Visibility (nautical miles)

       ** NOTE **
       A variable that has its data fields filled with "9"s, indicates that
       data was not collected for that sample period.
       **********

NOTICE OF PROVISIONAL DATUM
These datums and any data referred to said datum are PROVISIONAL and
subject to revision until they have been thoroughly reviewed and received final
approval.  Subsequent review based on field inspections and additional
measurements may result in revisions to the data and datums.  Data users are
cautioned to consider the conditional nature of this information before using
it for critical decisions such as those that concern physical or public safety.
Only after meeting all standards for quality control assurance will the datums
be classified as Accepted Datums.

STATION NAME: CBBT, Chesapeake Channel (8638901)
****************************************************************************************************
    CD       T    TZ    PW     OW    WS   WD   WG    AT    WT    AP    SA    SG     RH    AG   VI
****************************************************************************************************
2018/12/11 11:24 EST    2.64   3.87   18  346   20  39.9 -99.9 1018.4 -9.9 -9.999 -99.9 -99.99 -9.99
2018/12/11 11:30 EST    2.62   3.88   17  355   22  39.6 -99.9 1018.3 -9.9 -9.999 -99.9 -99.99 -9.99
2018/12/11 11:36 EST    2.59   3.76   17  349   20  39.6 -99.9 1018.1 -9.9 -9.999 -99.9 -99.99 -9.99
2018/12/11 11:42 EST    2.56   3.73   17  353   20  39.7 -99.9 1017.9 -9.9 -9.999 -99.9 -99.99 -9.99
2018/12/11 11:48 EST    2.53   3.74   17  346   20  39.9 -99.9 1017.8 -9.9 -9.999 -99.9 -99.99 -9.99
2018/12/11 11:54 EST    2.50   3.63   17  353   19  40.1 -99.9 1017.7 -9.9 -9.999 -99.9 -99.99 -9.99
2018/12/11 12:00 EST    2.47   3.60   18  346   20  39.9 -99.9 1017.6 -9.9 -9.999 -99.9 -99.99 -9.99
2018/12/11 12:06 EST    2.43   3.54   18  346   21  40.1 -99.9 1017.6 -9.9 -9.999 -99.9 -99.99 -9.99
2018/12/11 12:12 EST    2.39   3.47   17  344   21  40.1 -99.9 1017.6 -9.9 -9.999 -99.9 -99.99 -9.99
2018/12/11 12:18 EST    2.35   3.44   17  355   19  40.1 -99.9 1017.5 -9.9 -9.999 -99.9 -99.99 -9.99
2018/12/11 12:24 EST    2.31   3.41   15  357   18  40.3 -99.9 1017.5 -9.9 -9.999 -99.9 -99.99 -9.99
2018/12/11 12:30 EST    2.26   3.36   15  353   18  40.1 -99.9 1017.4 -9.9 -9.999 -99.9 -99.99 -9.99
2018/12/11 12:36 EST    2.22   3.31   14  348   17  40.3 -99.9 1017.3 -9.9 -9.999 -99.9 -99.99 -9.99
2018/12/11 12:42 EST    2.17   3.26   14  350   17  40.1 -99.9 1017.3 -9.9 -9.999 -99.9 -99.99 -9.99
2018/12/11 12:48 EST    2.11   3.19   13    3   16  40.3 -99.9 1017.3 -9.9 -9.999 -99.9 -99.99 -9.99
2018/12/11 12:54 EST    2.06   3.12   13  359   16  40.3 -99.9 1017.2 -9.9 -9.999 -99.9 -99.99 -9.99
2018/12/11 13:00 EST    2.00   3.13   11    6   15  40.3 -99.9 1017.1 -9.9 -9.999 -99.9 -99.99 -9.99
2018/12/11 13:06 EST    1.95   3.09   13  348   14  40.3 -99.9 1017.1 -9.9 -9.999 -99.9 -99.99 -9.99
2018/12/11 13:12 EST    1.89   2.99   13  351   16  40.5 -99.9 1017.2 -9.9 -9.999 -99.9 -99.99 -9.99
2018/12/11 13:18 EST    1.83   2.90   15  352   16  40.5 -99.9 1017.2 -9.9 -9.999 -99.9 -99.99 -9.99
2018/12/11 13:24 EST    1.76   2.86   13  350   16  40.6 -99.9 1017.2 -9.9 -9.999 -99.9 -99.99 -9.99
2018/12/11 13:30 EST    1.70   2.80   11  346   15  40.8 -99.9 1017.1 -9.9 -9.999 -99.9 -99.99 -9.99
2018/12/11 13:36 EST    1.64   2.71   11  337   14  40.8 -99.9 1017.0 -9.9 -9.999 -99.9 -99.99 -9.99
2018/12/11 13:42 EST    1.57   2.65   11  339   13  40.8 -99.9 1017.0 -9.9 -9.999 -99.9 -99.99 -9.99
2018/12/11 13:48 EST    1.51   2.61   12  333   14  40.8 -99.9 1016.9 -9.9 -9.999 -99.9 -99.99 -9.99
2018/12/11 13:54 EST    1.44   2.56   10  336   14  40.8 -99.9 1016.7 -9.9 -9.999 -99.9 -99.99 -9.99
2018/12/11 14:00 EST    1.37   2.41   11  333   13  41.0 -99.9 1016.7 -9.9 -9.999 -99.9 -99.99 -9.99
2018/12/11 14:06 EST    1.31   2.35   11  331   13  41.0 -99.9 1016.7 -9.9 -9.999 -99.9 -99.99 -9.99
2018/12/11 14:12 EST    1.24   2.28   10  337   12  41.0 -99.9 1016.6 -9.9 -9.999 -99.9 -99.99 -9.99
2018/12/11 14:18 EST    1.18   2.24   11  333   14  41.2 -99.9 1016.5 -9.9 -9.999 -99.9 -99.99 -9.99
2018/12/11 14:24 EST    1.11   2.12   13  331   15  41.5 -99.9 1016.4 -9.9 -9.999 -99.9 -99.99 -9.99
2018/12/11 14:30 EST    1.05   2.08   10  330   14  41.5 -99.9 1016.4 -9.9 -9.999 -99.9 -99.99 -9.99
2018/12/11 14:36 EST    0.99   2.08   11  344   13  41.4 -99.9 1016.3 -9.9 -9.999 -99.9 -99.99 -9.99
2018/12/11 14:42 EST    0.93   2.01   10  343   12  41.4 -99.9 1016.4 -9.9 -9.999 -99.9 -99.99 -9.99
2018/12/11 14:48 EST    0.87   1.95   10  353   12  41.5 -99.9 1016.5 -9.9 -9.999 -99.9 -99.99 -9.99
2018/12/11 14:54 EST    0.81   1.90    9  347   11  41.7 -99.9 1016.7 -9.9 -9.999 -99.9 -99.99 -9.99
2018/12/11 15:00 EST    0.76   1.81    9  350   13  41.5 -99.9 1016.8 -9.9 -9.999 -99.9 -99.99 -9.99
2018/12/11 15:06 EST    0.71   1.78    9  346   11  41.7 -99.9 1016.9 -9.9 -9.999 -99.9 -99.99 -9.99
2018/12/11 15:12 EST    0.66   1.78    8  312   10  41.9 -99.9 1016.9 -9.9 -9.999 -99.9 -99.99 -9.99
2018/12/11 15:18 EST    0.61   1.73    8  311   10  42.1 -99.9 1016.9 -9.9 -9.999 -99.9 -99.99 -9.99
2018/12/11 15:24 EST    0.56   1.79    9  318   11  42.4 -99.9 1016.9 -9.9 -9.999 -99.9 -99.99 -9.99
2018/12/11 15:30 EST    0.52   1.68    8  315   10  42.6 -99.9 1016.9 -9.9 -9.999 -99.9 -99.99 -9.99
2018/12/11 15:36 EST    0.48   1.64    8  319    9  42.8 -99.9 1016.9 -9.9 -9.999 -99.9 -99.99 -9.99
2018/12/11 15:42 EST    0.45   1.62    7  333    9  43.2 -99.9 1016.9 -9.9 -9.999 -99.9 -99.99 -9.99
2018/12/11 15:48 EST    0.41   1.55    8  340   10  43.2 -99.9 1016.9 -9.9 -9.999 -99.9 -99.99 -9.99
2018/12/11 15:54 EST    0.38   1.54   10  321   12  43.0 -99.9 1016.9 -9.9 -9.999 -99.9 -99.99 -9.99
2018/12/11 16:00 EST    0.35   1.47   11  313   14  42.8 -99.9 1016.9 -9.9 -9.999 -99.9 -99.99 -9.99
2018/12/11 16:06 EST    0.33   1.43   10  309   13  42.6 -99.9 1016.8 -9.9 -9.999 -99.9 -99.99 -9.99
2018/12/11 16:12 EST    0.31   1.44    9  310   12  42.8 -99.9 1016.9 -9.9 -9.999 -99.9 -99.99 -9.99
2018/12/11 16:18 EST    0.29   1.37   10  316   11  42.8 -99.9 1016.9 -9.9 -9.999 -99.9 -99.99 -9.99
2018/12/11 16:24 EST    0.27   1.32   10  312   11  42.8 -99.9 1016.9 -9.9 -9.999 -99.9 -99.99 -9.99
2018/12/11 16:30 EST    0.26   1.33    7  334   10  42.8 -99.9 1016.9 -9.9 -9.999 -99.9 -99.99 -9.99
2018/12/11 16:36 EST    0.24   1.28    7  329    8  42.6 -99.9 1016.9 -9.9 -9.999 -99.9 -99.99 -9.99
2018/12/11 16:42 EST    0.23   1.26    8  315    9  42.6 -99.9 1016.8 -9.9 -9.999 -99.9 -99.99 -9.99
2018/12/11 16:48 EST    0.23   1.28    7  320    8  42.4 -99.9 1016.9 -9.9 -9.999 -99.9 -99.99 -9.99
2018/12/11 16:54 EST    0.22   1.25    8  314    9  42.4 -99.9 1016.8 -9.9 -9.999 -99.9 -99.99 -9.99
2018/12/11 17:00 EST    0.22   1.30    8  308    9  42.1 -99.9 1016.8 -9.9 -9.999 -99.9 -99.99 -9.99
2018/12/11 17:06 EST    0.22   1.28    7  308    8  41.9 -99.9 1016.8 -9.9 -9.999 -99.9 -99.99 -9.99
2018/12/11 17:12 EST    0.22   1.30    8  307    9  41.9 -99.9 1016.9 -9.9 -9.999 -99.9 -99.99 -9.99
2018/12/11 17:18 EST    0.23   1.27    8  307   10  42.1 -99.9 1017.0 -9.9 -9.999 -99.9 -99.99 -9.99
2018/12/11 17:24 EST    0.24   1.30    9  309   10  42.1 -99.9 1017.1 -9.9 -9.999 -99.9 -99.99 -9.99
2018/12/11 17:30 EST    0.25   1.28    9  308   10  42.1 -99.9 1017.1 -9.9 -9.999 -99.9 -99.99 -9.99
2018/12/11 17:36 EST    0.26   1.32    9  300   11  42.3 -99.9 1017.0 -9.9 -9.999 -99.9 -99.99 -9.99
2018/12/11 17:42 EST    0.27   1.33   14  286   15  41.9 -99.9 1017.1 -9.9 -9.999 -99.9 -99.99 -9.99
2018/12/11 17:48 EST    0.29   1.36   15  290   16  41.7 -99.9 1017.2 -9.9 -9.999 -99.9 -99.99 -9.99
2018/12/11 17:54 EST    0.31   1.39   15  286   16  41.7 -99.9 1017.3 -9.9 -9.999 -99.9 -99.99 -9.99
2018/12/11 18:00 EST    0.33   1.39   15  286   16  41.7 -99.9 1017.3 -9.9 -9.999 -99.9 -99.99 -9.99
2018/12/11 18:06 EST    0.35   1.42   15  288   17  41.7 -99.9 1017.2 -9.9 -9.999 -99.9 -99.99 -9.99
2018/12/11 18:12 EST    0.37   1.43   15  283   17  41.5 -99.9 1017.2 -9.9 -9.999 -99.9 -99.99 -9.99
2018/12/11 18:18 EST    0.40   1.41   15  285   16  41.5 -99.9 1017.2 -9.9 -9.999 -99.9 -99.99 -9.99
2018/12/11 18:24 EST    0.43   1.43   14  287   16  41.7 -99.9 1017.3 -9.9 -9.999 -99.9 -99.99 -9.99
2018/12/11 18:30 EST    0.46   1.45   14  285   16  41.7 -99.9 1017.3 -9.9 -9.999 -99.9 -99.99 -9.99
2018/12/11 18:36 EST    0.49   1.44   15  285   17  41.5 -99.9 1017.3 -9.9 -9.999 -99.9 -99.99 -9.99
2018/12/11 18:42 EST    0.53   1.47   14  287   16  41.4 -99.9 1017.3 -9.9 -9.999 -99.9 -99.99 -9.99
2018/12/11 18:48 EST    0.56   1.49   12  280   15  41.4 -99.9 1017.2 -9.9 -9.999 -99.9 -99.99 -9.99
2018/12/11 18:54 EST    0.60   1.50   11  280   13  41.4 -99.9 1017.3 -9.9 -9.999 -99.9 -99.99 -9.99
2018/12/11 19:00 EST    0.64   1.52   12  283   13  41.4 -99.9 1017.3 -9.9 -9.999 -99.9 -99.99 -9.99
2018/12/11 19:06 EST    0.68   1.57   12  280   13  41.4 -99.9 1017.2 -9.9 -9.999 -99.9 -99.99 -9.99
2018/12/11 19:12 EST    0.72   1.61   12  277   13  41.4 -99.9 1017.3 -9.9 -9.999 -99.9 -99.99 -9.99
2018/12/11 19:18 EST    0.77   1.67   12  277   14  41.4 -99.9 1017.2 -9.9 -9.999 -99.9 -99.99 -9.99
2018/12/11 19:24 EST    0.81   1.71   12  277   14  41.4 -99.9 1017.3 -9.9 -9.999 -99.9 -99.99 -9.99
2018/12/11 19:30 EST    0.86   1.76   12  273   15  41.4 -99.9 1017.3 -9.9 -9.999 -99.9 -99.99 -9.99
2018/12/11 19:36 EST    0.91   1.80   14  279   15  41.4 -99.9 1017.4 -9.9 -9.999 -99.9 -99.99 -9.99
2018/12/11 19:42 EST    0.96   1.83   14  281   17  41.4 -99.9 1017.5 -9.9 -9.999 -99.9 -99.99 -9.99
2018/12/11 19:48 EST    1.01   1.87   13  276   17  41.2 -99.9 1017.5 -9.9 -9.999 -99.9 -99.99 -9.99
2018/12/11 19:54 EST    1.06   1.94   13  273   16  41.2 -99.9 1017.5 -9.9 -9.999 -99.9 -99.99 -9.99
2018/12/11 20:00 EST    1.12   1.98   16  266   17  41.0 -99.9 1017.4 -9.9 -9.999 -99.9 -99.99 -9.99
2018/12/11 20:06 EST    1.17   2.02   14  268   17  41.0 -99.9 1017.4 -9.9 -9.999 -99.9 -99.99 -9.99
2018/12/11 20:12 EST    1.22   2.08   16  263   18  41.0 -99.9 1017.4 -9.9 -9.999 -99.9 -99.99 -9.99
2018/12/11 20:18 EST    1.28   2.13   15  271   18  41.0 -99.9 1017.4 -9.9 -9.999 -99.9 -99.99 -9.99
2018/12/11 20:24 EST    1.33   2.15   15  267   18  41.0 -99.9 1017.5 -9.9 -9.999 -99.9 -99.99 -9.99
2018/12/11 20:30 EST    1.38   2.15   16  261   18  40.8 -99.9 1017.5 -9.9 -9.999 -99.9 -99.99 -9.99
2018/12/11 20:36 EST    1.44   2.21   13  267   17  41.0 -99.9 1017.5 -9.9 -9.999 -99.9 -99.99 -9.99
2018/12/11 20:42 EST    1.49   2.21   16  258   18  40.6 -99.9 1017.4 -9.9 -9.999 -99.9 -99.99 -9.99
2018/12/11 20:48 EST    1.54   2.29   17  259   19  40.5 -99.9 1017.4 -9.9 -9.999 -99.9 -99.99 -9.99
2018/12/11 20:54 EST    1.60   2.35   15  255   17  40.5 -99.9 1017.4 -9.9 -9.999 -99.9 -99.99 -9.99
2018/12/11 21:00 EST    1.65   2.41   15  261   18  40.5 -99.9 1017.5 -9.9 -9.999 -99.9 -99.99 -9.99
2018/12/11 21:06 EST    1.70   2.44   15  257   17  40.3 -99.9 1017.4 -9.9 -9.999 -99.9 -99.99 -9.99
2018/12/11 21:12 EST    1.75   2.46   13  248   16  40.3 -99.9 1017.3 -9.9 -9.999 -99.9 -99.99 -9.99
2018/12/11 21:18 EST    1.79   2.52   15  252   17  40.3 -99.9 1017.3 -9.9 -9.999 -99.9 -99.99 -9.99
2018/12/11 21:24 EST    1.84   2.54   15  251   17  40.1 -99.9 1017.2 -9.9 -9.999 -99.9 -99.99 -9.99
2018/12/11 21:30 EST    1.88   2.60   15  251   18  40.3 -99.9 1017.2 -9.9 -9.999 -99.9 -99.99 -9.99
2018/12/11 21:36 EST    1.92   2.61   16  247   18  40.1 -99.9 1017.1 -9.9 -9.999 -99.9 -99.99 -9.99
2018/12/11 21:42 EST    1.96   2.61   15  247   18  39.9 -99.9 1017.0 -9.9 -9.999 -99.9 -99.99 -9.99
2018/12/11 21:48 EST    2.00   2.63   15  249   17  39.7 -99.9 1017.0 -9.9 -9.999 -99.9 -99.99 -9.99
2018/12/11 21:54 EST    2.03   2.68   13  244   16  39.7 -99.9 1017.1 -9.9 -9.999 -99.9 -99.99 -9.99
2018/12/11 22:00 EST    2.06   2.70   12  241   15  39.6 -99.9 1017.1 -9.9 -9.999 -99.9 -99.99 -9.99
2018/12/11 22:06 EST    2.09   2.76   10  238   15  39.6 -99.9 1017.2 -9.9 -9.999 -99.9 -99.99 -9.99
2018/12/11 22:12 EST    2.12   2.77   12  238   16  39.6 -99.9 1017.1 -9.9 -9.999 -99.9 -99.99 -9.99
2018/12/11 22:18 EST    2.14   2.77    9  235   15  39.6 -99.9 1017.1 -9.9 -9.999 -99.9 -99.99 -9.99
2018/12/11 22:24 EST    2.16   2.77   11  240   15  39.4 -99.9 1017.1 -9.9 -9.999 -99.9 -99.99 -9.99
2018/12/11 22:30 EST    2.18   2.78   12  240   17  39.2 -99.9 1017.1 -9.9 -9.999 -99.9 -99.99 -9.99
2018/12/11 22:36 EST    2.20   2.76   13  242   16  39.4 -99.9 1017.0 -9.9 -9.999 -99.9 -99.99 -9.99
2018/12/11 22:42 EST    2.21   2.76   13  239   17  39.4 -99.9 1017.0 -9.9 -9.999 -99.9 -99.99 -9.99
2018/12/11 22:48 EST    2.22   2.72   11  239   14  39.6 -99.9 1017.0 -9.9 -9.999 -99.9 -99.99 -9.99
2018/12/11 22:54 EST    2.22   2.75   12  238   16  39.7 -99.9 1017.0 -9.9 -9.999 -99.9 -99.99 -9.99
2018/12/11 23:00 EST    2.23   2.75   14  243   18  39.7 -99.9 1017.0 -9.9 -9.999 -99.9 -99.99 -9.99
2018/12/11 23:06 EST    2.23   2.73   15  246   19  39.9 -99.9 1017.0 -9.9 -9.999 -99.9 -99.99 -9.99
2018/12/11 23:12 EST    2.22   2.72   15  250   18  39.9 -99.9 1016.9 -9.9 -9.999 -99.9 -99.99 -9.99
2018/12/11 23:18 EST    2.22   2.73   17  257   19  39.9 -99.9 1016.8 -9.9 -9.999 -99.9 -99.99 -9.99
2018/12/11 23:24 EST    2.21   2.69   18  257   21  39.9 -99.9 1016.7 -9.9 -9.999 -99.9 -99.99 -9.99
2018/12/11 23:30 EST    2.20   2.71   19  256   21  39.7 -99.9 1016.6 -9.9 -9.999 -99.9 -99.99 -9.99
2018/12/11 23:36 EST    2.19   2.67   19  257   21  39.6 -99.9 1016.5 -9.9 -9.999 -99.9 -99.99 -9.99
2018/12/11 23:42 EST    2.18   2.70   17  255   21  39.7 -99.9 1016.5 -9.9 -9.999 -99.9 -99.99 -9.99
2018/12/11 23:48 EST    2.16   2.70   16  259   20  39.6 -99.9 1016.5 -9.9 -9.999 -99.9 -99.99 -9.99
2018/12/11 23:54 EST    2.14   2.64   18  267   22  39.9 -99.9 1016.4 -9.9 -9.999 -99.9 -99.99 -9.99
2018/12/12 00:00 EST    2.12   2.62   18  269   21  39.7 -99.9 1016.3 -9.9 -9.999 -99.9 -99.99 -9.99
2018/12/12 00:06 EST    2.10   2.63   18  268   21  39.7 -99.9 1016.3 -9.9 -9.999 -99.9 -99.99 -9.99
2018/12/12 00:12 EST    2.08   2.59   17  269   20  39.7 -99.9 1016.4 -9.9 -9.999 -99.9 -99.99 -9.99
2018/12/12 00:18 EST    2.05   2.59   16  274   20  39.7 -99.9 1016.4 -9.9 -9.999 -99.9 -99.99 -9.99
2018/12/12 00:24 EST    2.02   2.54   16  272   18  39.7 -99.9 1016.4 -9.9 -9.999 -99.9 -99.99 -9.99
2018/12/12 00:30 EST    1.99   2.59   16  271   18  39.9 -99.9 1016.3 -9.9 -9.999 -99.9 -99.99 -9.99
2018/12/12 00:36 EST    1.96   2.56   15  275   18  39.7 -99.9 1016.5 -9.9 -9.999 -99.9 -99.99 -9.99
2018/12/12 00:42 EST    1.92   2.53   15  276   17  39.9 -99.9 1016.7 -9.9 -9.999 -99.9 -99.99 -9.99
2018/12/12 00:48 EST    1.89   2.52   16  278   18  39.9 -99.9 1016.8 -9.9 -9.999 -99.9 -99.99 -9.99
2018/12/12 00:54 EST    1.85   2.53   14  276   17  39.9 -99.9 1016.8 -9.9 -9.999 -99.9 -99.99 -9.99
2018/12/12 01:00 EST    1.81   2.49   15  277   17  39.9 -99.9 1016.9 -9.9 -9.999 -99.9 -99.99 -9.99
2018/12/12 01:06 EST    1.77   2.46   14  281   17  40.1 -99.9 1017.0 -9.9 -9.999 -99.9 -99.99 -9.99
2018/12/12 01:12 EST    1.72   2.41   16  287   19  39.9 -99.9 1017.1 -9.9 -9.999 -99.9 -99.99 -9.99
2018/12/12 01:18 EST    1.68   2.41   16  293   20  39.9 -99.9 1017.2 -9.9 -9.999 -99.9 -99.99 -9.99
2018/12/12 01:24 EST    1.63   2.35   17  292   19  39.9 -99.9 1017.3 -9.9 -9.999 -99.9 -99.99 -9.99
2018/12/12 01:30 EST    1.58   2.26   14  298   18  39.9 -99.9 1017.4 -9.9 -9.999 -99.9 -99.99 -9.99
2018/12/12 01:36 EST    1.53   2.22   15  299   18  39.9 -99.9 1017.4 -9.9 -9.999 -99.9 -99.99 -9.99
2018/12/12 01:42 EST    1.48   2.21   16  303   18  39.9 -99.9 1017.5 -9.9 -9.999 -99.9 -99.99 -9.99
2018/12/12 01:48 EST    1.43   2.18   17  308   18  39.9 -99.9 1017.5 -9.9 -9.999 -99.9 -99.99 -9.99
2018/12/12 01:54 EST    1.38   2.10   16  308   18  39.7 -99.9 1017.5 -9.9 -9.999 -99.9 -99.99 -9.99
2018/12/12 02:00 EST    1.33   2.09   17  310   18  39.4 -99.9 1017.7 -9.9 -9.999 -99.9 -99.99 -9.99
2018/12/12 02:06 EST    1.27   2.02   15  311   18  39.4 -99.9 1017.8 -9.9 -9.999 -99.9 -99.99 -9.99
2018/12/12 02:12 EST    1.22   1.96   14  312   17  39.2 -99.9 1017.9 -9.9 -9.999 -99.9 -99.99 -9.99
2018/12/12 02:18 EST    1.17   1.90   13  312   16  39.2 -99.9 1018.1 -9.9 -9.999 -99.9 -99.99 -9.99
2018/12/12 02:24 EST    1.11   1.85   13  312   15  39.2 -99.9 1018.2 -9.9 -9.999 -99.9 -99.99 -9.99
2018/12/12 02:30 EST    1.06   1.81   10  312   13  39.4 -99.9 1018.2 -9.9 -9.999 -99.9 -99.99 -9.99
2018/12/12 02:36 EST    1.01   1.74   11  320   12  39.7 -99.9 1018.2 -9.9 -9.999 -99.9 -99.99 -9.99
2018/12/12 02:42 EST    0.96   1.72    9  315   11  40.1 -99.9 1018.3 -9.9 -9.999 -99.9 -99.99 -9.99
2018/12/12 02:48 EST    0.91   1.70   10  327   12  40.5 -99.9 1018.2 -9.9 -9.999 -99.9 -99.99 -9.99
2018/12/12 02:54 EST    0.86   1.62   10  330   12  40.6 -99.9 1018.3 -9.9 -9.999 -99.9 -99.99 -9.99
2018/12/12 03:00 EST    0.81   1.59   10  334   12  40.8 -99.9 1018.4 -9.9 -9.999 -99.9 -99.99 -9.99
2018/12/12 03:06 EST    0.76   1.50   10  331   11  40.6 -99.9 1018.7 -9.9 -9.999 -99.9 -99.99 -9.99
2018/12/12 03:12 EST    0.72   1.48    9  314   13  40.5 -99.9 1018.8 -9.9 -9.999 -99.9 -99.99 -9.99
2018/12/12 03:18 EST    0.68   1.46    8  300   10  39.7 -99.9 1018.8 -9.9 -9.999 -99.9 -99.99 -9.99
2018/12/12 03:24 EST    0.64   1.39    8  302   10  39.4 -99.9 1018.9 -9.9 -9.999 -99.9 -99.99 -9.99
2018/12/12 03:30 EST    0.60   1.34    9  297   10  39.2 -99.9 1019.0 -9.9 -9.999 -99.9 -99.99 -9.99
2018/12/12 03:36 EST    0.57   1.32    8  301   10  39.2 -99.9 1019.0 -9.9 -9.999 -99.9 -99.99 -9.99
2018/12/12 03:42 EST    0.53   1.29    8  287    9  39.2 -99.9 1019.1 -9.9 -9.999 -99.9 -99.99 -9.99
2018/12/12 03:48 EST    0.50   1.21    8  295    9  39.0 -99.9 1019.1 -9.9 -9.999 -99.9 -99.99 -9.99
2018/12/12 03:54 EST    0.47   1.22    7  298    8  39.0 -99.9 1019.0 -9.9 -9.999 -99.9 -99.99 -9.99
2018/12/12 04:00 EST    0.45   1.20    7  302    9  38.8 -99.9 1019.0 -9.9 -9.999 -99.9 -99.99 -9.99
2018/12/12 04:06 EST    0.43   1.13    7  302    8  38.8 -99.9 1019.1 -9.9 -9.999 -99.9 -99.99 -9.99
2018/12/12 04:12 EST    0.41   1.14    7  303    8  38.8 -99.9 1019.2 -9.9 -9.999 -99.9 -99.99 -9.99
2018/12/12 04:18 EST    0.39   1.15    7  304    9  38.8 -99.9 1019.2 -9.9 -9.999 -99.9 -99.99 -9.99
2018/12/12 04:24 EST    0.37   1.17    7  308   10  38.8 -99.9 1019.3 -9.9 -9.999 -99.9 -99.99 -9.99
2018/12/12 04:30 EST    0.36   1.19    7  307    8  38.8 -99.9 1019.3 -9.9 -9.999 -99.9 -99.99 -9.99
2018/12/12 04:36 EST    0.35   1.22    7  310    8  38.8 -99.9 1019.4 -9.9 -9.999 -99.9 -99.99 -9.99
2018/12/12 04:42 EST    0.34   1.21    8  314    9  39.0 -99.9 1019.4 -9.9 -9.999 -99.9 -99.99 -9.99
2018/12/12 04:48 EST    0.34   1.19    8  311    9  39.0 -99.9 1019.5 -9.9 -9.999 -99.9 -99.99 -9.99
2018/12/12 04:54 EST    0.33   1.21    8  306    9  38.8 -99.9 1019.6 -9.9 -9.999 -99.9 -99.99 -9.99
2018/12/12 05:00 EST    0.33   1.21    9  296   10  38.7 -99.9 1019.7 -9.9 -9.999 -99.9 -99.99 -9.99
2018/12/12 05:06 EST    0.34   1.15    8  298   10  38.7 -99.9 1019.7 -9.9 -9.999 -99.9 -99.99 -9.99
2018/12/12 05:12 EST    0.34   1.22    8  310   10  38.7 -99.9 1019.7 -9.9 -9.999 -99.9 -99.99 -9.99
2018/12/12 05:18 EST    0.34   1.19    7  314    8  38.7 -99.9 1019.7 -9.9 -9.999 -99.9 -99.99 -9.99
2018/12/12 05:24 EST    0.35   1.19    7  309    8  38.7 -99.9 1019.9 -9.9 -9.999 -99.9 -99.99 -9.99
2018/12/12 05:30 EST    0.36   1.20    7  304    8  38.8 -99.9 1019.9 -9.9 -9.999 -99.9 -99.99 -9.99
2018/12/12 05:36 EST    0.38   1.19    7  304    9  38.8 -99.9 1020.0 -9.9 -9.999 -99.9 -99.99 -9.99
2018/12/12 05:42 EST    0.39   1.22    8  298    9  38.8 -99.9 1020.2 -9.9 -9.999 -99.9 -99.99 -9.99
2018/12/12 05:48 EST    0.41   1.24    8  300    8  39.0 -99.9 1020.2 -9.9 -9.999 -99.9 -99.99 -9.99
2018/12/12 05:54 EST    0.42   1.21    8  308    9  39.0 -99.9 1020.2 -9.9 -9.999 -99.9 -99.99 -9.99
2018/12/12 06:00 EST    0.45   1.21    8  307    9  39.2 -99.9 1020.3 -9.9 -9.999 -99.9 -99.99 -9.99
2018/12/12 06:06 EST    0.47   1.26    7  302    9  39.0 -99.9 1020.4 -9.9 -9.999 -99.9 -99.99 -9.99
2018/12/12 06:12 EST    0.49   1.25    8  298    9  39.2 -99.9 1020.5 -9.9 -9.999 -99.9 -99.99 -9.99
2018/12/12 06:18 EST    0.52   1.28    8  297    9  39.2 -99.9 1020.5 -9.9 -9.999 -99.9 -99.99 -9.99
2018/12/12 06:24 EST    0.55   1.32    8  286    9  39.0 -99.9 1020.4 -9.9 -9.999 -99.9 -99.99 -9.99
2018/12/12 06:30 EST    0.58   1.34    9  290   10  38.8 -99.9 1020.6 -9.9 -9.999 -99.9 -99.99 -9.99
2018/12/12 06:36 EST    0.61   1.38    9  295   11  39.0 -99.9 1020.6 -9.9 -9.999 -99.9 -99.99 -9.99
2018/12/12 06:42 EST    0.65   1.42    9  291   10  39.4 -99.9 1020.6 -9.9 -9.999 -99.9 -99.99 -9.99
2018/12/12 06:48 EST    0.68   1.45    7  296   10  39.4 -99.9 1020.7 -9.9 -9.999 -99.9 -99.99 -9.99
2018/12/12 06:54 EST    0.72   1.56    7  291    8  39.2 -99.9 1020.9 -9.9 -9.999 -99.9 -99.99 -9.99
2018/12/12 07:00 EST    0.76   1.55    7  296    9  39.2 -99.9 1021.0 -9.9 -9.999 -99.9 -99.99 -9.99
2018/12/12 07:06 EST    0.80   1.62    8  300    9  39.4 -99.9 1021.1 -9.9 -9.999 -99.9 -99.99 -9.99
2018/12/12 07:12 EST    0.85   1.67    8  295   11  39.6 -99.9 1021.2 -9.9 -9.999 -99.9 -99.99 -9.99
2018/12/12 07:18 EST    0.89   1.74    7  294   11  39.9 -99.9 1021.3 -9.9 -9.999 -99.9 -99.99 -9.99
2018/12/12 07:24 EST    0.94   1.81    8  292    9  40.1 -99.9 1021.3 -9.9 -9.999 -99.9 -99.99 -9.99
2018/12/12 07:30 EST    0.99   1.88    8  294   10  39.9 -99.9 1021.4 -9.9 -9.999 -99.9 -99.99 -9.99
2018/12/12 07:36 EST    1.04   1.93    8  297    9  39.9 -99.9 1021.4 -9.9 -9.999 -99.9 -99.99 -9.99
2018/12/12 07:42 EST    1.09   2.01    7  296    9  40.1 -99.9 1021.6 -9.9 -9.999 -99.9 -99.99 -9.99
2018/12/12 07:48 EST    1.14   2.03    8  293   10  40.3 -99.9 1021.7 -9.9 -9.999 -99.9 -99.99 -9.99
2018/12/12 07:54 EST    1.19   2.10    6  294    9  40.3 -99.9 1021.8 -9.9 -9.999 -99.9 -99.99 -9.99
2018/12/12 08:00 EST    1.25   2.15    7  294    9  40.3 -99.9 1021.8 -9.9 -9.999 -99.9 -99.99 -9.99
2018/12/12 08:06 EST    1.30   2.22    7  303    9  40.3 -99.9 1021.9 -9.9 -9.999 -99.9 -99.99 -9.99
2018/12/12 08:12 EST    1.36   2.29    6  307    9  40.5 -99.9 1021.9 -9.9 -9.999 -99.9 -99.99 -9.99
2018/12/12 08:18 EST    1.42   2.30    6  314    7  40.5 -99.9 1022.0 -9.9 -9.999 -99.9 -99.99 -9.99
2018/12/12 08:24 EST    1.47   2.36    7  314    9  40.5 -99.9 1022.0 -9.9 -9.999 -99.9 -99.99 -9.99
2018/12/12 08:30 EST    1.53   2.43    6  306    9  40.6 -99.9 1022.1 -9.9 -9.999 -99.9 -99.99 -9.99
2018/12/12 08:36 EST    1.59   2.45    5  302    8  40.6 -99.9 1022.2 -9.9 -9.999 -99.9 -99.99 -9.99
2018/12/12 08:42 EST    1.64   2.51    5  305    6  40.8 -99.9 1022.1 -9.9 -9.999 -99.9 -99.99 -9.99
2018/12/12 08:48 EST    1.70   2.53    5  293    7  40.8 -99.9 1022.2 -9.9 -9.999 -99.9 -99.99 -9.99
2018/12/12 08:54 EST    1.76   2.61    6  295    7  40.6 -99.9 1022.4 -9.9 -9.999 -99.9 -99.99 -9.99
2018/12/12 09:00 EST    1.82   2.65    6  296    8  40.8 -99.9 1022.4 -9.9 -9.999 -99.9 -99.99 -9.99
2018/12/12 09:06 EST    1.87   2.72    7  305    8  40.6 -99.9 1022.6 -9.9 -9.999 -99.9 -99.99 -9.99
2018/12/12 09:12 EST    1.93   2.72    6  318    7  40.6 -99.9 1022.6 -9.9 -9.999 -99.9 -99.99 -9.99
2018/12/12 09:18 EST    1.98   2.78    8  305    9  40.5 -99.9 1022.5 -9.9 -9.999 -99.9 -99.99 -9.99
2018/12/12 09:24 EST    2.03   2.81    6  311    8  40.5 -99.9 1022.6 -9.9 -9.999 -99.9 -99.99 -9.99
2018/12/12 09:30 EST    2.08   2.83    6  311    8  40.5 -99.9 1022.5 -9.9 -9.999 -99.9 -99.99 -9.99
2018/12/12 09:36 EST    2.13   2.89    7  322    8  40.5 -99.9 1022.5 -9.9 -9.999 -99.9 -99.99 -9.99
2018/12/12 09:42 EST    2.18   2.92    7  324    8  40.6 -99.9 1022.5 -9.9 -9.999 -99.9 -99.99 -9.99
2018/12/12 09:48 EST    2.23   2.97    7  313    8  40.6 -99.9 1022.4 -9.9 -9.999 -99.9 -99.99 -9.99
2018/12/12 09:54 EST    2.27   3.01    6  322    8  40.6 -99.9 1022.4 -9.9 -9.999 -99.9 -99.99 -9.99
2018/12/12 10:00 EST    2.31   3.03    6  314    7  40.6 -99.9 1022.5 -9.9 -9.999 -99.9 -99.99 -9.99
2018/12/12 10:06 EST    2.35   3.07    8  303    9  40.8 -99.9 1022.6 -9.9 -9.999 -99.9 -99.99 -9.99
2018/12/12 10:12 EST    2.39   3.11    7  295    8  40.8 -99.9 1022.8 -9.9 -9.999 -99.9 -99.99 -9.99
2018/12/12 10:18 EST    2.42   3.13    8  291   10  41.0 -99.9 1022.8 -9.9 -9.999 -99.9 -99.99 -9.99
2018/12/12 10:24 EST    2.45   3.17    7  301    9  41.2 -99.9 1023.0 -9.9 -9.999 -99.9 -99.99 -9.99
2018/12/12 10:30 EST    2.48   3.20    8  294    9  41.2 -99.9 1023.0 -9.9 -9.999 -99.9 -99.99 -9.99
2018/12/12 10:36 EST    2.50   3.23    7  297    8  41.4 -99.9 1022.9 -9.9 -9.999 -99.9 -99.99 -9.99
2018/12/12 10:42 EST    2.52   3.25    7  288   10  41.4 -99.9 1023.0 -9.9 -9.999 -99.9 -99.99 -9.99
2018/12/12 10:48 EST    2.54   3.29    8  298    9  41.2 -99.9 1022.9 -9.9 -9.999 -99.9 -99.99 -9.99
2018/12/12 10:54 EST    2.56   3.29    7  305    9  41.4 -99.9 1022.7 -9.9 -9.999 -99.9 -99.99 -9.99
2018/12/12 11:00 EST    2.57   3.31    8  294    9  41.4 -99.9 1022.7 -9.9 -9.999 -99.9 -99.99 -9.99
2018/12/12 11:06 EST    2.58   3.33    8  293    8  41.5 -99.9 1022.6 -9.9 -9.999 -99.9 -99.99 -9.99
2018/12/12 11:12 EST    2.59   3.29    6  311    9  41.7 -99.9 1022.5 -9.9 -9.999 -99.9 -99.99 -9.99
2018/12/12 11:18 EST    2.59   3.34    6  299    9  41.7 -99.9 1022.3 -9.9 -9.999 -99.9 -99.99 -9.99
2018/12/12 11:24 EST    2.59   3.34    7  321    8  41.7 -99.9 1022.1 -9.9 -9.999 -99.9 -99.99 -9.99
2018/12/12 11:30 EST    2.59   3.34    6  326    7  41.9 -99.9 1022.0 -9.9 -9.999 -99.9 -99.99 -9.99
2018/12/12 11:36 EST    2.58   3.37    6  326    7  42.1 -99.9 1022.0 -9.9 -9.999 -99.9 -99.99 -9.99
2018/12/12 11:42 EST    2.57   3.36    6  327    7  42.1 -99.9 1022.0 -9.9 -9.999 -99.9 -99.99 -9.99
2018/12/12 11:48 EST    2.56   3.37    6  322    8  42.1 -99.9 1022.1 -9.9 -9.999 -99.9 -99.99 -9.99
2018/12/12 11:54 EST    2.55   3.39    6  303    8  42.1 -99.9 1022.1 -9.9 -9.999 -99.9 -99.99 -9.99
2018/12/12 12:00 EST    2.53   3.37    5  324    7  42.1 -99.9 1021.9 -9.9 -9.999 -99.9 -99.99 -9.99
2018/12/12 12:06 EST    2.52   3.36    6  307    7  42.1 -99.9 1021.9 -9.9 -9.999 -99.9 -99.99 -9.99
2018/12/12 12:12 EST    2.49   3.33    5  332    7  42.3 -99.9 1021.7 -9.9 -9.999 -99.9 -99.99 -9.99
2018/12/12 12:18 EST    2.47   3.33    5  345    6  42.1 -99.9 1021.6 -9.9 -9.999 -99.9 -99.99 -9.99
2018/12/12 12:24 EST    2.44   3.30    4  318    5  42.4 -99.9 1021.5 -9.9 -9.999 -99.9 -99.99 -9.99
2018/12/12 12:30 EST    2.42   3.30    5  324    6  42.3 -99.9 1021.7 -9.9 -9.999 -99.9 -99.99 -9.99
2018/12/12 12:36 EST    2.39   3.29    4  304    6  42.4 -99.9 1021.8 -9.9 -9.999 -99.9 -99.99 -9.99
2018/12/12 12:42 EST    2.35   3.24    5  307    6  42.3 -99.9 1021.8 -9.9 -9.999 -99.9 -99.99 -9.99
2018/12/12 12:48 EST    2.32   3.23    6  291    7  42.3 -99.9 1021.9 -9.9 -9.999 -99.9 -99.99 -9.99
2018/12/12 12:54 EST    2.28   3.20    5  274    7  42.3 -99.9 1021.8 -9.9 -9.999 -99.9 -99.99 -9.99
2018/12/12 13:00 EST    2.24   3.16    5  277    7  42.4 -99.9 1021.6 -9.9 -9.999 -99.9 -99.99 -9.99
2018/12/12 13:06 EST    2.20   3.10    5  296    6  42.6 -99.9 1021.6 -9.9 -9.999 -99.9 -99.99 -9.99
2018/12/12 13:12 EST    2.16   3.05    5  303    6  42.4 -99.9 1021.5 -9.9 -9.999 -99.9 -99.99 -9.99
2018/12/12 13:18 EST    2.11   3.01    4  316    5  42.8 -99.9 1021.4 -9.9 -9.999 -99.9 -99.99 -9.99
2018/12/12 13:24 EST    2.07   2.96    2  316    4  43.2 -99.9 1021.2 -9.9 -9.999 -99.9 -99.99 -9.99
2018/12/12 13:30 EST    2.02   2.91    4  322    5  43.2 -99.9 1021.3 -9.9 -9.999 -99.9 -99.99 -9.99
2018/12/12 13:36 EST    1.97   2.88    2  294    4  43.5 -99.9 1021.2 -9.9 -9.999 -99.9 -99.99 -9.99
2018/12/12 13:42 EST    1.92   2.84    2  273    3  44.1 -99.9 1021.2 -9.9 -9.999 -99.9 -99.99 -9.99
2018/12/12 13:48 EST    1.86   2.77    2  308    3  44.1 -99.9 1021.1 -9.9 -9.999 -99.9 -99.99 -9.99
2018/12/12 13:54 EST    1.81   2.71    1  336    3  44.2 -99.9 1020.9 -9.9 -9.999 -99.9 -99.99 -9.99
2018/12/12 14:00 EST    1.75   2.62    0  325    3  44.4 -99.9 1021.1 -9.9 -9.999 -99.9 -99.99 -9.99
2018/12/12 14:06 EST    1.70   2.57    1  247    2  44.4 -99.9 1021.1 -9.9 -9.999 -99.9 -99.99 -9.99
2018/12/12 14:12 EST    1.64   2.49    0  203    2  45.0 -99.9 1021.1 -9.9 -9.999 -99.9 -99.99 -9.99
2018/12/12 14:18 EST    1.58   2.44    0  260    0  45.1 -99.9 1021.1 -9.9 -9.999 -99.9 -99.99 -9.99
2018/12/12 14:24 EST    1.52   2.39    2    7    2  43.9 -99.9 1021.0 -9.9 -9.999 -99.9 -99.99 -9.99
2018/12/12 14:30 EST    1.46   2.31    1  335    2  43.2 -99.9 1021.2 -9.9 -9.999 -99.9 -99.99 -9.99
2018/12/12 14:36 EST    1.40   2.24    2   10    3  42.6 -99.9 1021.2 -9.9 -9.999 -99.9 -99.99 -9.99
2018/12/12 14:42 EST    1.34   2.17    0  343    2  42.8 -99.9 1021.4 -9.9 -9.999 -99.9 -99.99 -9.99
2018/12/12 14:48 EST    1.28   2.12    1  227    1  42.8 -99.9 1021.5 -9.9 -9.999 -99.9 -99.99 -9.99
2018/12/12 14:54 EST    1.22   2.03    0  214    2  43.2 -99.9 1021.5 -9.9 -9.999 -99.9 -99.99 -9.99
2018/12/12 15:00 EST    1.16   1.99    1  235    2  43.2 -99.9 1021.6 -9.9 -9.999 -99.9 -99.99 -9.99
2018/12/12 15:06 EST    1.11   1.94    0  240    2  43.0 -99.9 1021.5 -9.9 -9.999 -99.9 -99.99 -9.99
2018/12/12 15:12 EST    1.05   1.88    0  102    1  43.0 -99.9 1021.6 -9.9 -9.999 -99.9 -99.99 -9.99
2018/12/12 15:18 EST    0.99   1.81    1  195    2  43.0 -99.9 1021.7 -9.9 -9.999 -99.9 -99.99 -9.99
2018/12/12 15:24 EST    0.94   1.76    1  165    3  42.6 -99.9 1021.8 -9.9 -9.999 -99.9 -99.99 -9.99
2018/12/12 15:30 EST    0.89   1.69    1  206    2  42.6 -99.9 1021.9 -9.9 -9.999 -99.9 -99.99 -9.99
2018/12/12 15:36 EST    0.84   1.60    0  154    2  42.8 -99.9 1021.7 -9.9 -9.999 -99.9 -99.99 -9.99
2018/12/12 15:42 EST    0.79   1.56    1  158    3  42.8 -99.9 1021.8 -9.9 -9.999 -99.9 -99.99 -9.99
2018/12/12 15:48 EST    0.74   1.50    0  109    2  42.8 -99.9 1021.9 -9.9 -9.999 -99.9 -99.99 -9.99
2018/12/12 15:54 EST    0.70   1.48    0    7    1  42.8 -99.9 1022.1 -9.9 -9.999 -99.9 -99.99 -9.99
2018/12/12 16:00 EST    0.66   1.44    0    1    1  42.6 -99.9 1022.3 -9.9 -9.999 -99.9 -99.99 -9.99
2018/12/12 16:06 EST    0.62   1.37    0  112    0  42.3 -99.9 1022.2 -9.9 -9.999 -99.9 -99.99 -9.99
2018/12/12 16:12 EST    0.58   1.34    2  111    4  42.1 -99.9 1021.9 -9.9 -9.999 -99.9 -99.99 -9.99
2018/12/12 16:18 EST    0.54   1.32    3  118    4  41.9 -99.9 1021.9 -9.9 -9.999 -99.9 -99.99 -9.99
2018/12/12 16:24 EST    0.51   1.28    3  121    4  41.9 -99.9 1021.9 -9.9 -9.999 -99.9 -99.99 -9.99
2018/12/12 16:30 EST    0.48   1.28    3  115    4  41.9 -99.9 1022.1 -9.9 -9.999 -99.9 -99.99 -9.99
2018/12/12 16:36 EST    0.45   1.26    4  123    5  41.9 -99.9 1022.1 -9.9 -9.999 -99.9 -99.99 -9.99
2018/12/12 16:42 EST    0.43   1.20    5  142    6  42.1 -99.9 1022.3 -9.9 -9.999 -99.9 -99.99 -9.99
2018/12/12 16:48 EST    0.40   1.20    5  145    7  42.1 -99.9 1022.3 -9.9 -9.999 -99.9 -99.99 -9.99
2018/12/12 16:54 EST    0.38   1.17    7  148    9  42.1 -99.9 1022.3 -9.9 -9.999 -99.9 -99.99 -9.99
2018/12/12 17:00 EST    0.36   1.16    7  154    9  42.3 -99.9 1022.3 -9.9 -9.999 -99.9 -99.99 -9.99
2018/12/12 17:06 EST    0.34   1.14    6  169    8  42.3 -99.9 1022.5 -9.9 -9.999 -99.9 -99.99 -9.99
2018/12/12 17:12 EST    0.33   1.14    6  176    8  42.3 -99.9 1022.7 -9.9 -9.999 -99.9 -99.99 -9.99
2018/12/12 17:18 EST    0.32   1.14    7  170    9  42.4 -99.9 1022.7 -9.9 -9.999 -99.9 -99.99 -9.99
2018/12/12 17:24 EST    0.31   1.12    7  172    9  42.4 -99.9 1022.6 -9.9 -9.999 -99.9 -99.99 -9.99
2018/12/12 17:30 EST    0.30   1.10    8  178   10  42.4 -99.9 1022.5 -9.9 -9.999 -99.9 -99.99 -9.99
2018/12/12 17:36 EST    0.29   1.07    8  166   11  42.4 -99.9 1022.5 -9.9 -9.999 -99.9 -99.99 -9.99
2018/12/12 17:42 EST    0.29   1.05    7  175   10  42.4 -99.9 1022.6 -9.9 -9.999 -99.9 -99.99 -9.99
2018/12/12 17:48 EST    0.29   1.05    8  169   10  42.4 -99.9 1022.4 -9.9 -9.999 -99.9 -99.99 -9.99
2018/12/12 17:54 EST    0.29   1.06    7  168    9  42.4 -99.9 1022.5 -9.9 -9.999 -99.9 -99.99 -9.99
2018/12/12 18:00 EST    0.29   1.06    6  160    9  42.6 -99.9 1022.6 -9.9 -9.999 -99.9 -99.99 -9.99
2018/12/12 18:06 EST    0.30   1.06    7  165    8  42.6 -99.9 1022.4 -9.9 -9.999 -99.9 -99.99 -9.99
2018/12/12 18:12 EST    0.31   1.04    9  162   11  42.6 -99.9 1022.4 -9.9 -9.999 -99.9 -99.99 -9.99
2018/12/12 18:18 EST    0.32   1.04    8  165   11  42.8 -99.9 1022.4 -9.9 -9.999 -99.9 -99.99 -9.99
2018/12/12 18:24 EST    0.33   1.04    8  166   11  43.0 -99.9 1022.4 -9.9 -9.999 -99.9 -99.99 -9.99
2018/12/12 18:30 EST    0.34   1.03    9  169   11  43.0 -99.9 1022.5 -9.9 -9.999 -99.9 -99.99 -9.99
2018/12/12 18:36 EST    0.36   1.02    8  172   11  43.0 -99.9 1022.6 -9.9 -9.999 -99.9 -99.99 -9.99
2018/12/12 18:42 EST    0.37   1.05    9  177   11  43.0 -99.9 1022.6 -9.9 -9.999 -99.9 -99.99 -9.99
2018/12/12 18:48 EST    0.39   1.06    9  178   11  43.0 -99.9 1022.5 -9.9 -9.999 -99.9 -99.99 -9.99
2018/12/12 18:54 EST    0.42   1.05    9  176   12  43.0 -99.9 1022.5 -9.9 -9.999 -99.9 -99.99 -9.99
2018/12/12 19:00 EST    0.44   1.07    9  181   11  42.8 -99.9 1022.7 -9.9 -9.999 -99.9 -99.99 -9.99
2018/12/12 19:06 EST    0.47   1.09    9  180   11  43.0 -99.9 1022.7 -9.9 -9.999 -99.9 -99.99 -9.99
2018/12/12 19:12 EST    0.50   1.08   11  181   13  42.8 -99.9 1022.8 -9.9 -9.999 -99.9 -99.99 -9.99
2018/12/12 19:18 EST    0.53   1.09   10  181   13  42.8 -99.9 1022.8 -9.9 -9.999 -99.9 -99.99 -9.99
2018/12/12 19:24 EST    0.56   1.15   10  181   12  42.8 -99.9 1022.8 -9.9 -9.999 -99.9 -99.99 -9.99
2018/12/12 19:30 EST    0.59   1.16   11  180   13  42.8 -99.9 1022.9 -9.9 -9.999 -99.9 -99.99 -9.99
2018/12/12 19:36 EST    0.63   1.20   12  178   13  42.6 -99.9 1022.9 -9.9 -9.999 -99.9 -99.99 -9.99
2018/12/12 19:42 EST    0.67   1.27   11  182   13  42.6 -99.9 1022.8 -9.9 -9.999 -99.9 -99.99 -9.99
2018/12/12 19:48 EST    0.71   1.30   12  180   13  42.8 -99.9 1022.8 -9.9 -9.999 -99.9 -99.99 -9.99
2018/12/12 19:54 EST    0.75   1.31   10  178   13  42.8 -99.9 1022.7 -9.9 -9.999 -99.9 -99.99 -9.99
2018/12/12 20:00 EST    0.79   1.34   11  174   12  42.8 -99.9 1022.7 -9.9 -9.999 -99.9 -99.99 -9.99
2018/12/12 20:06 EST    0.83   1.35    9  171   13  43.0 -99.9 1022.7 -9.9 -9.999 -99.9 -99.99 -9.99
2018/12/12 20:12 EST    0.88   1.40    9  175   11  43.0 -99.9 1022.8 -9.9 -9.999 -99.9 -99.99 -9.99
2018/12/12 20:18 EST    0.92   1.46   11  176   13  43.0 -99.9 1022.7 -9.9 -9.999 -99.9 -99.99 -9.99
2018/12/12 20:24 EST    0.97   1.48   10  172   13  43.0 -99.9 1022.6 -9.9 -9.999 -99.9 -99.99 -9.99
2018/12/12 20:30 EST    1.02   1.56   11  171   13  43.0 -99.9 1022.6 -9.9 -9.999 -99.9 -99.99 -9.99
2018/12/12 20:36 EST    1.06   1.64   10  174   12  43.0 -99.9 1022.6 -9.9 -9.999 -99.9 -99.99 -9.99
2018/12/12 20:42 EST    1.11   1.70   11  173   12  43.2 -99.9 1022.7 -9.9 -9.999 -99.9 -99.99 -9.99
2018/12/12 20:48 EST    1.16   1.74   11  175   13  43.2 -99.9 1022.8 -9.9 -9.999 -99.9 -99.99 -9.99
2018/12/12 20:54 EST    1.21   1.81   11  179   13  43.3 -99.9 1022.8 -9.9 -9.999 -99.9 -99.99 -9.99
2018/12/12 21:00 EST    1.26   1.87   12  181   13  43.2 -99.9 1023.0 -9.9 -9.999 -99.9 -99.99 -9.99
2018/12/12 21:06 EST    1.31   1.91   11  181   13  43.0 -99.9 1023.1 -9.9 -9.999 -99.9 -99.99 -9.99
2018/12/12 21:12 EST    1.36   1.94   11  182   12  43.0 -99.9 1023.1 -9.9 -9.999 -99.9 -99.99 -9.99
2018/12/12 21:18 EST    1.41   2.00   11  182   13  43.0 -99.9 1023.1 -9.9 -9.999 -99.9 -99.99 -9.99
2018/12/12 21:24 EST    1.46   2.03   11  180   13  43.0 -99.9 1023.1 -9.9 -9.999 -99.9 -99.99 -9.99
2018/12/12 21:30 EST    1.51   2.06   11  181   13  43.0 -99.9 1023.0 -9.9 -9.999 -99.9 -99.99 -9.99
2018/12/12 21:36 EST    1.56   2.12   10  183   13  43.0 -99.9 1023.1 -9.9 -9.999 -99.9 -99.99 -9.99
2018/12/12 21:42 EST    1.61   2.15   10  185   13  42.8 -99.9 1023.3 -9.9 -9.999 -99.9 -99.99 -9.99
2018/12/12 21:48 EST    1.66   2.19   11  189   13  42.8 -99.9 1023.2 -9.9 -9.999 -99.9 -99.99 -9.99
2018/12/12 21:54 EST    1.70   2.24   10  188   12  42.8 -99.9 1023.2 -9.9 -9.999 -99.9 -99.99 -9.99
2018/12/12 22:00 EST    1.75   2.28   10  181   12  42.8 -99.9 1023.4 -9.9 -9.999 -99.9 -99.99 -9.99
2018/12/12 22:06 EST    1.79   2.33   10  179   12  43.0 -99.9 1023.3 -9.9 -9.999 -99.9 -99.99 -9.99
2018/12/12 22:12 EST    1.83   2.36   11  181   13  42.8 -99.9 1023.2 -9.9 -9.999 -99.9 -99.99 -9.99
2018/12/12 22:18 EST    1.87   2.37   12  178   14  42.8 -99.9 1023.1 -9.9 -9.999 -99.9 -99.99 -9.99
2018/12/12 22:24 EST    1.91   2.42   11  180   12  42.8 -99.9 1023.2 -9.9 -9.999 -99.9 -99.99 -9.99
2018/12/12 22:30 EST    1.94   2.48   10  183   13  42.8 -99.9 1023.2 -9.9 -9.999 -99.9 -99.99 -9.99
2018/12/12 22:36 EST    1.97   2.50   11  182   13  42.8 -99.9 1023.3 -9.9 -9.999 -99.9 -99.99 -9.99
2018/12/12 22:42 EST    2.01   2.53   11  182   12  42.6 -99.9 1023.2 -9.9 -9.999 -99.9 -99.99 -9.99
2018/12/12 22:48 EST    2.03   2.58   10  178   12  42.6 -99.9 1023.2 -9.9 -9.999 -99.9 -99.99 -9.99
2018/12/12 22:54 EST    2.06   2.60   10  182   11  42.6 -99.9 1023.2 -9.9 -9.999 -99.9 -99.99 -9.99
2018/12/12 23:00 EST    2.08   2.63    9  189   11  42.6 -99.9 1023.2 -9.9 -9.999 -99.9 -99.99 -9.99
2018/12/12 23:06 EST    2.10   2.65    9  187   10  42.6 -99.9 1023.3 -9.9 -9.999 -99.9 -99.99 -9.99
2018/12/12 23:12 EST    2.12   2.66    9  182   11  42.6 -99.9 1023.2 -9.9 -9.999 -99.9 -99.99 -9.99
2018/12/12 23:18 EST    2.14   2.66    9  181   11  42.6 -99.9 1023.1 -9.9 -9.999 -99.9 -99.99 -9.99
2018/12/12 23:24 EST    2.15   2.67   10  183   11  42.6 -99.9 1023.2 -9.9 -9.999 -99.9 -99.99 -9.99
2018/12/12 23:30 EST    2.16   2.66   10  184   11  42.6 -99.9 1023.2 -9.9 -9.999 -99.9 -99.99 -9.99
2018/12/12 23:36 EST    2.17   2.70    9  190   11  42.6 -99.9 1023.2 -9.9 -9.999 -99.9 -99.99 -9.99
2018/12/12 23:42 EST    2.17   2.72    9  188   12  42.6 -99.9 1023.2 -9.9 -9.999 -99.9 -99.99 -9.99
2018/12/12 23:48 EST    2.17   2.72   10  185   11  42.6 -99.9 1023.1 -9.9 -9.999 -99.9 -99.99 -9.99
2018/12/12 23:54 EST    2.17   2.72   10  182   12  42.6 -99.9 1022.9 -9.9 -9.999 -99.9 -99.99 -9.99
2018/12/13 00:00 EST    2.17   2.70   11  186   12  42.8 -99.9 1022.9 -9.9 -9.999 -99.9 -99.99 -9.99
2018/12/13 00:06 EST    2.16   2.66   11  182   13  42.8 -99.9 1022.8 -9.9 -9.999 -99.9 -99.99 -9.99
2018/12/13 00:12 EST    2.16   2.63   11  182   13  42.8 -99.9 1022.7 -9.9 -9.999 -99.9 -99.99 -9.99
2018/12/13 00:18 EST    2.15   2.64   12  182   15  42.8 -99.9 1022.7 -9.9 -9.999 -99.9 -99.99 -9.99
2018/12/13 00:24 EST    2.13   2.64   12  181   14  42.8 -99.9 1022.7 -9.9 -9.999 -99.9 -99.99 -9.99
2018/12/13 00:30 EST    2.12   2.56   12  181   14  42.8 -99.9 1022.7 -9.9 -9.999 -99.9 -99.99 -9.99
2018/12/13 00:36 EST    2.10   2.53   11  183   13  42.8 -99.9 1022.7 -9.9 -9.999 -99.9 -99.99 -9.99
2018/12/13 00:42 EST    2.08   2.55   11  182   13  42.8 -99.9 1022.7 -9.9 -9.999 -99.9 -99.99 -9.99
2018/12/13 00:48 EST    2.06   2.52   12  188   13  42.6 -99.9 1022.7 -9.9 -9.999 -99.9 -99.99 -9.99
2018/12/13 00:54 EST    2.04   2.50   13  187   14  42.6 -99.9 1022.6 -9.9 -9.999 -99.9 -99.99 -9.99
2018/12/13 01:00 EST    2.01   2.47   12  187   14  42.6 -99.9 1022.6 -9.9 -9.999 -99.9 -99.99 -9.99
2018/12/13 01:06 EST    1.99   2.43 -999 -999 -999 -99.9 -99.9 -999.9 -9.9 -9.999 -99.9 -99.99 -9.99
2018/12/13 01:12 EST    1.96   2.44   11  191   13  42.6 -99.9 1022.7 -9.9 -9.999 -99.9 -99.99 -9.99
2018/12/13 01:18 EST    1.93   2.42   12  192   13  42.6 -99.9 1022.6 -9.9 -9.999 -99.9 -99.99 -9.99
2018/12/13 01:24 EST    1.90   2.40   11  191   14  42.4 -99.9 1022.7 -9.9 -9.999 -99.9 -99.99 -9.99
2018/12/13 01:30 EST    1.86   2.35   11  191   13  42.4 -99.9 1022.8 -9.9 -9.999 -99.9 -99.99 -9.99
2018/12/13 01:36 EST    1.83   2.31   11  191   13  42.3 -99.9 1022.9 -9.9 -9.999 -99.9 -99.99 -9.99
2018/12/13 01:42 EST    1.79   2.27    9  191   12  42.4 -99.9 1022.9 -9.9 -9.999 -99.9 -99.99 -9.99
2018/12/13 01:48 EST    1.75   2.24    9  190   11  42.4 -99.9 1022.9 -9.9 -9.999 -99.9 -99.99 -9.99
2018/12/13 01:54 EST    1.72   2.18    9  186   11  42.4 -99.9 1022.9 -9.9 -9.999 -99.9 -99.99 -9.99
2018/12/13 02:00 EST    1.68   2.15   10  187   11  42.4 -99.9 1022.9 -9.9 -9.999 -99.9 -99.99 -9.99
2018/12/13 02:06 EST    1.63   2.13   10  187   11  42.4 -99.9 1023.0 -9.9 -9.999 -99.9 -99.99 -9.99
2018/12/13 02:12 EST    1.59   2.10   10  190   11  42.4 -99.9 1023.0 -9.9 -9.999 -99.9 -99.99 -9.99
2018/12/13 02:18 EST    1.55   2.04   10  191   11  42.4 -99.9 1023.1 -9.9 -9.999 -99.9 -99.99 -9.99
2018/12/13 02:24 EST    1.50   1.99    8  192   10  42.4 -99.9 1023.2 -9.9 -9.999 -99.9 -99.99 -9.99
2018/12/13 02:30 EST    1.46   1.95    9  191   10  42.3 -99.9 1023.2 -9.9 -9.999 -99.9 -99.99 -9.99
2018/12/13 02:36 EST    1.41   1.90    8  182   10  42.3 -99.9 1023.1 -9.9 -9.999 -99.9 -99.99 -9.99
2018/12/13 02:42 EST    1.36   1.83    8  181   10  42.3 -99.9 1023.1 -9.9 -9.999 -99.9 -99.99 -9.99
2018/12/13 02:48 EST    1.32   1.80    9  181   11  42.3 -99.9 1023.1 -9.9 -9.999 -99.9 -99.99 -9.99
2018/12/13 02:54 EST    1.27   1.75    9  182   10  42.3 -99.9 1023.0 -9.9 -9.999 -99.9 -99.99 -9.99
2018/12/13 03:00 EST    1.22   1.72   10  180   11  42.3 -99.9 1023.0 -9.9 -9.999 -99.9 -99.99 -9.99
2018/12/13 03:06 EST    1.18   1.71   10  181   11  42.3 -99.9 1023.0 -9.9 -9.999 -99.9 -99.99 -9.99
2018/12/13 03:12 EST    1.13   1.64    8  180   11  42.4 -99.9 1023.1 -9.9 -9.999 -99.9 -99.99 -9.99
2018/12/13 03:18 EST    1.08   1.60   10  180   11  42.3 -99.9 1023.1 -9.9 -9.999 -99.9 -99.99 -9.99
2018/12/13 03:24 EST    1.04   1.56    8  184   10  42.1 -99.9 1023.1 -9.9 -9.999 -99.9 -99.99 -9.99
2018/12/13 03:30 EST    0.99   1.54    7  182    9  42.3 -99.9 1023.1 -9.9 -9.999 -99.9 -99.99 -9.99
2018/12/13 03:36 EST    0.95   1.49    6  183    9  42.3 -99.9 1023.1 -9.9 -9.999 -99.9 -99.99 -9.99
2018/12/13 03:42 EST    0.91   1.47    7  173    8  42.3 -99.9 1023.0 -9.9 -9.999 -99.9 -99.99 -9.99
2018/12/13 03:48 EST    0.87   1.44    6  166    9  42.3 -99.9 1023.0 -9.9 -9.999 -99.9 -99.99 -9.99
2018/12/13 03:54 EST    0.83   1.40    7  169    9  42.3 -99.9 1023.0 -9.9 -9.999 -99.9 -99.99 -9.99
2018/12/13 04:00 EST    0.79   1.36    5  165    8  42.4 -99.9 1023.2 -9.9 -9.999 -99.9 -99.99 -9.99
2018/12/13 04:06 EST    0.75   1.34    6  164    8  42.4 -99.9 1023.2 -9.9 -9.999 -99.9 -99.99 -9.99
2018/12/13 04:12 EST    0.72   1.30    6  161    7  42.6 -99.9 1023.1 -9.9 -9.999 -99.9 -99.99 -9.99
2018/12/13 04:18 EST    0.68   1.29    6  162    7  42.8 -99.9 1023.2 -9.9 -9.999 -99.9 -99.99 -9.99
2018/12/13 04:24 EST    0.65   1.25    6  157    7  43.2 -99.9 1023.2 -9.9 -9.999 -99.9 -99.99 -9.99
2018/12/13 04:30 EST    0.62   1.24    6  159    8  43.2 -99.9 1023.1 -9.9 -9.999 -99.9 -99.99 -9.99
2018/12/13 04:36 EST    0.60   1.22    8  163    9  43.3 -99.9 1023.2 -9.9 -9.999 -99.9 -99.99 -9.99
2018/12/13 04:42 EST    0.57   1.19    6  158    8  43.5 -99.9 1023.3 -9.9 -9.999 -99.9 -99.99 -9.99
2018/12/13 04:48 EST    0.55   1.18    7  165    8  43.5 -99.9 1023.4 -9.9 -9.999 -99.9 -99.99 -9.99
2018/12/13 04:54 EST    0.53   1.14    8  166    9  43.5 -99.9 1023.3 -9.9 -9.999 -99.9 -99.99 -9.99
2018/12/13 05:00 EST    0.51   1.08    8  164   10  43.5 -99.9 1023.2 -9.9 -9.999 -99.9 -99.99 -9.99
2018/12/13 05:06 EST    0.49   1.07    7  178    9  43.5 -99.9 1023.4 -9.9 -9.999 -99.9 -99.99 -9.99
2018/12/13 05:12 EST    0.48   1.05    6  178    8  43.3 -99.9 1023.3 -9.9 -9.999 -99.9 -99.99 -9.99
2018/12/13 05:18 EST    0.47   1.05    5  172    8  43.3 -99.9 1023.4 -9.9 -9.999 -99.9 -99.99 -9.99
2018/12/13 05:24 EST    0.45   1.02    5  174    9  43.2 -99.9 1023.4 -9.9 -9.999 -99.9 -99.99 -9.99
2018/12/13 05:30 EST    0.45   1.00    5  184    7  42.8 -99.9 1023.5 -9.9 -9.999 -99.9 -99.99 -9.99
2018/12/13 05:36 EST    0.44   1.01    5  179    6  42.6 -99.9 1023.6 -9.9 -9.999 -99.9 -99.99 -9.99
2018/12/13 05:42 EST    0.44   1.02    5  179    5  42.6 -99.9 1023.6 -9.9 -9.999 -99.9 -99.99 -9.99
2018/12/13 05:48 EST    0.43   1.03    4  170    5  42.6 -99.9 1023.7 -9.9 -9.999 -99.9 -99.99 -9.99
2018/12/13 05:54 EST    0.43   1.03    4  171    5  42.6 -99.9 1023.8 -9.9 -9.999 -99.9 -99.99 -9.99
2018/12/13 06:00 EST    0.43   1.03    5  162    5  42.8 -99.9 1023.8 -9.9 -9.999 -99.9 -99.99 -9.99
2018/12/13 06:06 EST    0.44   1.02    4  158    5  42.8 -99.9 1023.9 -9.9 -9.999 -99.9 -99.99 -9.99
2018/12/13 06:12 EST    0.44   1.07    4  153    5  42.8 -99.9 1023.9 -9.9 -9.999 -99.9 -99.99 -9.99
2018/12/13 06:18 EST    0.45   1.03    5  161    6  42.8 -99.9 1023.9 -9.9 -9.999 -99.9 -99.99 -9.99
2018/12/13 06:24 EST    0.46   1.06    4  167    6  42.8 -99.9 1024.0 -9.9 -9.999 -99.9 -99.99 -9.99
2018/12/13 06:30 EST    0.47   1.05    4  164    5  42.8 -99.9 1024.1 -9.9 -9.999 -99.9 -99.99 -9.99
2018/12/13 06:36 EST    0.49   1.05    4  161    6  42.8 -99.9 1024.1 -9.9 -9.999 -99.9 -99.99 -9.99
2018/12/13 06:42 EST    0.50   1.08    4  159    5  42.8 -99.9 1024.2 -9.9 -9.999 -99.9 -99.99 -9.99
2018/12/13 06:48 EST    0.52   1.11    4  163    5  43.0 -99.9 1024.3 -9.9 -9.999 -99.9 -99.99 -9.99
2018/12/13 06:54 EST    0.54   1.14    4  152    5  43.0 -99.9 1024.3 -9.9 -9.999 -99.9 -99.99 -9.99
2018/12/13 07:00 EST    0.56   1.14    3  148    4  43.2 -99.9 1024.3 -9.9 -9.999 -99.9 -99.99 -9.99
2018/12/13 07:06 EST    0.59   1.17    4  160    4  43.2 -99.9 1024.4 -9.9 -9.999 -99.9 -99.99 -9.99
2018/12/13 07:12 EST    0.61   1.22    4  181    5  43.2 -99.9 1024.4 -9.9 -9.999 -99.9 -99.99 -9.99
2018/12/13 07:18 EST    0.64   1.26    4  178    5  43.3 -99.9 1024.4 -9.9 -9.999 -99.9 -99.99 -9.99
2018/12/13 07:24 EST    0.67   1.28    4  175    5  43.5 -99.9 1024.5 -9.9 -9.999 -99.9 -99.99 -9.99
2018/12/13 07:30 EST    0.71   1.31    5  180    6  43.5 -99.9 1024.6 -9.9 -9.999 -99.9 -99.99 -9.99
2018/12/13 07:36 EST    0.74   1.35    4  179    6  43.5 -99.9 1024.7 -9.9 -9.999 -99.9 -99.99 -9.99
2018/12/13 07:42 EST    0.78   1.38    4  184    5  43.5 -99.9 1024.7 -9.9 -9.999 -99.9 -99.99 -9.99
2018/12/13 07:48 EST    0.81   1.45    5  178    6  43.7 -99.9 1024.7 -9.9 -9.999 -99.9 -99.99 -9.99
2018/12/13 07:54 EST    0.85   1.49    5  174    6  43.5 -99.9 1024.9 -9.9 -9.999 -99.9 -99.99 -9.99
2018/12/13 08:00 EST    0.89   1.54    5  181    6  43.5 -99.9 1024.9 -9.9 -9.999 -99.9 -99.99 -9.99
2018/12/13 08:06 EST    0.94   1.57    5  179    6  43.9 -99.9 1025.0 -9.9 -9.999 -99.9 -99.99 -9.99
2018/12/13 08:12 EST    0.98   1.62    5  175    7  43.9 -99.9 1025.0 -9.9 -9.999 -99.9 -99.99 -9.99
2018/12/13 08:18 EST    1.02 -99.99 -999 -999 -999 -99.9 -99.9 -999.9 -9.9 -9.999 -99.9 -99.99 -9.99
2018/12/13 08:24 EST    1.07 -99.99 -999 -999 -999 -99.9 -99.9 -999.9 -9.9 -9.999 -99.9 -99.99 -9.99
2018/12/13 08:30 EST    1.12   1.78 -999 -999 -999 -99.9 -99.9 -999.9 -9.9 -9.999 -99.9 -99.99 -9.99
2018/12/13 08:36 EST    1.17   1.86    4  200    5  44.1 -99.9 1025.3 -9.9 -9.999 -99.9 -99.99 -9.99
2018/12/13 08:42 EST    1.22   1.94    4  191    4  44.1 -99.9 1025.4 -9.9 -9.999 -99.9 -99.99 -9.99
2018/12/13 08:48 EST    1.26   1.98    4  197    5  44.1 -99.9 1025.5 -9.9 -9.999 -99.9 -99.99 -9.99
2018/12/13 08:54 EST    1.32   2.02    5  188    6  44.1 -99.9 1025.5 -9.9 -9.999 -99.9 -99.99 -9.99
2018/12/13 09:00 EST    1.37   2.04    5  194    6  44.1 -99.9 1025.7 -9.9 -9.999 -99.9 -99.99 -9.99
2018/12/13 09:06 EST    1.42   2.11    4  199    6  44.1 -99.9 1025.7 -9.9 -9.999 -99.9 -99.99 -9.99
2018/12/13 09:12 EST    1.47   2.18    5  194    6  44.2 -99.9 1025.7 -9.9 -9.999 -99.9 -99.99 -9.99
2018/12/13 09:18 EST    1.52   2.22    4  184    6  44.2 -99.9 1025.8 -9.9 -9.999 -99.9 -99.99 -9.99
2018/12/13 09:24 EST    1.57   2.27    6  182    7  44.4 -99.9 1025.9 -9.9 -9.999 -99.9 -99.99 -9.99
2018/12/13 09:30 EST    1.63   2.31    6  185    8  44.4 -99.9 1026.0 -9.9 -9.999 -99.9 -99.99 -9.99
2018/12/13 09:36 EST    1.68   2.36    8  183    9  44.4 -99.9 1026.0 -9.9 -9.999 -99.9 -99.99 -9.99
2018/12/13 09:42 EST    1.73   2.41    7  180    9  44.6 -99.9 1026.0 -9.9 -9.999 -99.9 -99.99 -9.99
2018/12/13 09:48 EST    1.78   2.40    7  182    8  44.8 -99.9 1026.1 -9.9 -9.999 -99.9 -99.99 -9.99
2018/12/13 09:54 EST    1.83   2.47    6  182    8  45.0 -99.9 1026.2 -9.9 -9.999 -99.9 -99.99 -9.99
2018/12/13 10:00 EST    1.88   2.51    7  180    7  45.1 -99.9 1026.2 -9.9 -9.999 -99.9 -99.99 -9.99
2018/12/13 10:06 EST    1.93   2.54    8  181    8  45.1 -99.9 1026.1 -9.9 -9.999 -99.9 -99.99 -9.99
2018/12/13 10:12 EST    1.97   2.59    7  182    9  45.3 -99.9 1026.1 -9.9 -9.999 -99.9 -99.99 -9.99
2018/12/13 10:18 EST    2.02   2.64    6  184    8  45.5 -99.9 1026.1 -9.9 -9.999 -99.9 -99.99 -9.99
2018/12/13 10:24 EST    2.06   2.69    6  194    8  45.7 -99.9 1026.3 -9.9 -9.999 -99.9 -99.99 -9.99
2018/12/13 10:30 EST    2.11   2.69    5  192    7  45.9 -99.9 1026.3 -9.9 -9.999 -99.9 -99.99 -9.99
2018/12/13 10:36 EST    2.15   2.74    4  182    6  45.9 -99.9 1026.3 -9.9 -9.999 -99.9 -99.99 -9.99
2018/12/13 10:42 EST    2.19   2.78    4  169    5  45.9 -99.9 1026.2 -9.9 -9.999 -99.9 -99.99 -9.99
2018/12/13 10:48 EST    2.22   2.80    4  176    5  45.9 -99.9 1026.2 -9.9 -9.999 -99.9 -99.99 -9.99
2018/12/13 10:54 EST    2.26   2.82    4  172    6  46.0 -99.9 1026.2 -9.9 -9.999 -99.9 -99.99 -9.99
2018/12/13 11:00 EST    2.29   2.87    5  171    6  45.9 -99.9 1026.1 -9.9 -9.999 -99.9 -99.99 -9.99
2018/12/13 11:06 EST    2.32   2.88    5  169    6  46.0 -99.9 1025.9 -9.9 -9.999 -99.9 -99.99 -9.99
2018/12/13 11:12 EST    2.35   2.89    6  166    7  46.2 -99.9 1025.9 -9.9 -9.999 -99.9 -99.99 -9.99
2018/12/13 11:18 EST    2.37   2.93    6  171    7  46.2 -99.9 1025.9 -9.9 -9.999 -99.9 -99.99 -9.99
2018/12/13 11:24 EST    2.40   2.93    5  165    7  46.2 -99.9 1025.8 -9.9 -9.999 -99.9 -99.99 -9.99
2018/12/13 11:30 EST    2.42   2.96    5  162    6  46.4 -99.9 1025.7 -9.9 -9.999 -99.9 -99.99 -9.99
2018/12/13 11:36 EST    2.43   2.96    5  150    6  46.4 -99.9 1025.7 -9.9 -9.999 -99.9 -99.99 -9.99
2018/12/13 11:42 EST    2.44   2.98    4  162    5  46.4 -99.9 1025.6 -9.9 -9.999 -99.9 -99.99 -9.99
2018/12/13 11:48 EST    2.46   2.98    4  143    5  46.9 -99.9 1025.4 -9.9 -9.999 -99.9 -99.99 -9.99
2018/12/13 11:54 EST    2.46   3.01    5  154    6  47.3 -99.9 1025.2 -9.9 -9.999 -99.9 -99.99 -9.99
2018/12/13 12:00 EST    2.47   3.04    5  154    6  47.5 -99.9 1025.2 -9.9 -9.999 -99.9 -99.99 -9.99
2018/12/13 12:06 EST    2.47   3.04    5  156    7  47.7 -99.9 1025.0 -9.9 -9.999 -99.9 -99.99 -9.99
2018/12/13 12:12 EST    2.47   3.03    7  145    8  47.5 -99.9 1024.7 -9.9 -9.999 -99.9 -99.99 -9.99
2018/12/13 12:18 EST    2.46   3.01    9  146   11  47.3 -99.9 1024.5 -9.9 -9.999 -99.9 -99.99 -9.99
2018/12/13 12:24 EST    2.46   3.01   10  145   12  47.1 -99.9 1024.5 -9.9 -9.999 -99.9 -99.99 -9.99
2018/12/13 12:30 EST    2.45   3.01    7  142   11  47.3 -99.9 1024.6 -9.9 -9.999 -99.9 -99.99 -9.99
2018/12/13 12:36 EST    2.43   3.01    6  141    8  47.5 -99.9 1024.9 -9.9 -9.999 -99.9 -99.99 -9.99
2018/12/13 12:42 EST    2.42   3.00    4  145    7  48.0 -99.9 1025.0 -9.9 -9.999 -99.9 -99.99 -9.99
2018/12/13 12:48 EST    2.40   2.94    1  150    4  49.3 -99.9 1025.1 -9.9 -9.999 -99.9 -99.99 -9.99
2018/12/13 12:54 EST    2.38   2.93    1  184    2  51.6 -99.9 1025.2 -9.9 -9.999 -99.9 -99.99 -9.99
2018/12/13 13:00 EST    2.36   2.94    2  143    2  52.3 -99.9 1025.1 -9.9 -9.999 -99.9 -99.99 -9.99
2018/12/13 13:06 EST    2.33   2.95    3  144    4  51.1 -99.9 1025.1 -9.9 -9.999 -99.9 -99.99 -9.99
2018/12/13 13:12 EST    2.31   2.90    4  124    6  49.6 -99.9 1024.9 -9.9 -9.999 -99.9 -99.99 -9.99
2018/12/13 13:18 EST    2.28   2.86    6  119    7  48.6 -99.9 1024.9 -9.9 -9.999 -99.9 -99.99 -9.99
2018/12/13 13:24 EST    2.25   2.82    6  115    7  48.6 -99.9 1025.0 -9.9 -9.999 -99.9 -99.99 -9.99
2018/12/13 13:30 EST    2.22   2.75    6  119    8  48.4 -99.9 1025.0 -9.9 -9.999 -99.9 -99.99 -9.99
2018/12/13 13:36 EST    2.18   2.73    7  132    8  48.0 -99.9 1025.1 -9.9 -9.999 -99.9 -99.99 -9.99
2018/12/13 13:42 EST    2.15   2.69    8  134    9  47.5 -99.9 1025.0 -9.9 -9.999 -99.9 -99.99 -9.99
2018/12/13 13:48 EST    2.11   2.65    8  131    9  47.5 -99.9 1025.0 -9.9 -9.999 -99.9 -99.99 -9.99
2018/12/13 13:54 EST    2.07   2.63    8  131    9  47.3 -99.9 1024.9 -9.9 -9.999 -99.9 -99.99 -9.99
2018/12/13 14:00 EST    2.03   2.58    7  124    9  47.3 -99.9 1025.0 -9.9 -9.999 -99.9 -99.99 -9.99
2018/12/13 14:06 EST    1.99   2.52    7  120    9  47.5 -99.9 1024.8 -9.9 -9.999 -99.9 -99.99 -9.99
2018/12/13 14:12 EST    1.94   2.49    7  121    8  47.3 -99.9 1024.8 -9.9 -9.999 -99.9 -99.99 -9.99
2018/12/13 14:18 EST    1.90   2.45    8  129    9  47.5 -99.9 1025.0 -9.9 -9.999 -99.9 -99.99 -9.99
2018/12/13 14:24 EST    1.85   2.44    7  133   10  47.3 -99.9 1025.1 -9.9 -9.999 -99.9 -99.99 -9.99
2018/12/13 14:30 EST    1.80   2.41    7  130    8  47.3 -99.9 1025.2 -9.9 -9.999 -99.9 -99.99 -9.99
2018/12/13 14:36 EST    1.76   2.36    5  130    8  47.3 -99.9 1025.3 -9.9 -9.999 -99.9 -99.99 -9.99
2018/12/13 14:42 EST    1.71   2.32    4  127    6  47.3 -99.9 1025.4 -9.9 -9.999 -99.9 -99.99 -9.99
2018/12/13 14:48 EST    1.66   2.26    4  127    6  47.1 -99.9 1025.6 -9.9 -9.999 -99.9 -99.99 -9.99
2018/12/13 14:54 EST    1.60   2.25    4  122    5  47.1 -99.9 1025.7 -9.9 -9.999 -99.9 -99.99 -9.99
2018/12/13 15:00 EST    1.55   2.22    4  124    5  47.1 -99.9 1025.8 -9.9 -9.999 -99.9 -99.99 -9.99
2018/12/13 15:06 EST    1.50   2.16    3  110    5  47.3 -99.9 1025.8 -9.9 -9.999 -99.9 -99.99 -9.99
2018/12/13 15:12 EST    1.45   2.12    4  107    5  47.3 -99.9 1025.8 -9.9 -9.999 -99.9 -99.99 -9.99
2018/12/13 15:18 EST    1.40   2.06    4  100    5  47.1 -99.9 1025.8 -9.9 -9.999 -99.9 -99.99 -9.99
2018/12/13 15:24 EST    1.34   2.00    4  106    5  46.9 -99.9 1025.7 -9.9 -9.999 -99.9 -99.99 -9.99
2018/12/13 15:30 EST    1.29   1.97    4  102    5  46.8 -99.9 1025.7 -9.9 -9.999 -99.9 -99.99 -9.99
2018/12/13 15:36 EST    1.24   1.93    4  109    5  46.8 -99.9 1025.7 -9.9 -9.999 -99.9 -99.99 -9.99
2018/12/13 15:42 EST    1.18   1.87    4  109    6  46.8 -99.9 1025.7 -9.9 -9.999 -99.9 -99.99 -9.99
2018/12/13 15:48 EST    1.13   1.82    5  112    6  46.6 -99.9 1025.7 -9.9 -9.999 -99.9 -99.99 -9.99
2018/12/13 15:54 EST    1.08   1.78    4  103    5  46.6 -99.9 1025.8 -9.9 -9.999 -99.9 -99.99 -9.99
2018/12/13 16:00 EST    1.03   1.75    4  108    5  46.6 -99.9 1025.9 -9.9 -9.999 -99.9 -99.99 -9.99
2018/12/13 16:06 EST    0.98   1.71    4  102    7  46.4 -99.9 1025.8 -9.9 -9.999 -99.9 -99.99 -9.99
2018/12/13 16:12 EST    0.94   1.64    4  103    6  46.4 -99.9 1025.8 -9.9 -9.999 -99.9 -99.99 -9.99
2018/12/13 16:18 EST    0.89   1.60    4  104    6  46.4 -99.9 1025.8 -9.9 -9.999 -99.9 -99.99 -9.99
2018/12/13 16:24 EST    0.84   1.56    4  105    5  46.4 -99.9 1025.9 -9.9 -9.999 -99.9 -99.99 -9.99
2018/12/13 16:30 EST    0.80   1.55    4  103    5  46.4 -99.9 1026.0 -9.9 -9.999 -99.9 -99.99 -9.99
2018/12/13 16:36 EST    0.76   1.52    4  119    6  46.4 -99.9 1025.9 -9.9 -9.999 -99.9 -99.99 -9.99
2018/12/13 16:42 EST    0.72   1.47    6  116    6  46.4 -99.9 1025.7 -9.9 -9.999 -99.9 -99.99 -9.99
2018/12/13 16:48 EST    0.68   1.46    5  127    7  46.4 -99.9 1026.0 -9.9 -9.999 -99.9 -99.99 -9.99
2018/12/13 16:54 EST    0.64   1.42    5  128    7  46.4 -99.9 1026.1 -9.9 -9.999 -99.9 -99.99 -9.99
2018/12/13 17:00 EST    0.61   1.42    5  130    6  46.4 -99.9 1026.1 -9.9 -9.999 -99.9 -99.99 -9.99
2018/12/13 17:06 EST    0.57   1.38    6  128    7  46.4 -99.9 1026.1 -9.9 -9.999 -99.9 -99.99 -9.99
2018/12/13 17:12 EST    0.54   1.37    7  139    9  46.4 -99.9 1026.3 -9.9 -9.999 -99.9 -99.99 -9.99
2018/12/13 17:18 EST    0.51   1.32    7  138    8  46.4 -99.9 1026.2 -9.9 -9.999 -99.9 -99.99 -9.99
2018/12/13 17:24 EST    0.49   1.27    7  146    8  46.6 -99.9 1026.4 -9.9 -9.999 -99.9 -99.99 -9.99
2018/12/13 17:30 EST    0.46   1.26    6  144    7  46.6 -99.9 1026.4 -9.9 -9.999 -99.9 -99.99 -9.99
2018/12/13 17:36 EST    0.44   1.23    6  148    8  46.8 -99.9 1026.4 -9.9 -9.999 -99.9 -99.99 -9.99
2018/12/13 17:42 EST    0.42   1.18    6  136    7  46.6 -99.9 1026.4 -9.9 -9.999 -99.9 -99.99 -9.99
2018/12/13 17:48 EST    0.40   1.15    6  119    8  46.4 -99.9 1026.3 -9.9 -9.999 -99.9 -99.99 -9.99
2018/12/13 17:54 EST    0.38   1.13    6  132    8  46.2 -99.9 1026.5 -9.9 -9.999 -99.9 -99.99 -9.99
2018/12/13 18:00 EST    0.37   1.12    6  119    7  46.0 -99.9 1026.4 -9.9 -9.999 -99.9 -99.99 -9.99
2018/12/13 18:06 EST    0.36   1.12    6  141    8  46.2 -99.9 1026.6 -9.9 -9.999 -99.9 -99.99 -9.99
2018/12/13 18:12 EST    0.35   1.10    7  159    8  46.0 -99.9 1026.7 -9.9 -9.999 -99.9 -99.99 -9.99
2018/12/13 18:18 EST    0.34   1.08    7  164    8  46.0 -99.9 1026.8 -9.9 -9.999 -99.9 -99.99 -9.99
2018/12/13 18:24 EST    0.33   1.11    6  161    7  46.4 -99.9 1026.8 -9.9 -9.999 -99.9 -99.99 -9.99
2018/12/13 18:30 EST    0.33   1.09    6  163    7  46.6 -99.9 1026.8 -9.9 -9.999 -99.9 -99.99 -9.99
2018/12/13 18:36 EST    0.33   1.08    6  156    8  46.6 -99.9 1026.8 -9.9 -9.999 -99.9 -99.99 -9.99
2018/12/13 18:42 EST    0.33   1.09    5  152    7  46.4 -99.9 1026.8 -9.9 -9.999 -99.9 -99.99 -9.99
2018/12/13 18:48 EST    0.33   1.11    5  158    7  46.2 -99.9 1026.8 -9.9 -9.999 -99.9 -99.99 -9.99
2018/12/13 18:54 EST    0.34   1.09    5  150    7  46.2 -99.9 1026.9 -9.9 -9.999 -99.9 -99.99 -9.99
2018/12/13 19:00 EST    0.35   1.14    4  153    5  46.0 -99.9 1027.1 -9.9 -9.999 -99.9 -99.99 -9.99
2018/12/13 19:06 EST    0.36   1.16    4  151    5  46.0 -99.9 1027.0 -9.9 -9.999 -99.9 -99.99 -9.99
2018/12/13 19:12 EST    0.37   1.17    5  146    6  45.9 -99.9 1027.0 -9.9 -9.999 -99.9 -99.99 -9.99
2018/12/13 19:18 EST    0.38   1.17    5  147    6  45.7 -99.9 1027.1 -9.9 -9.999 -99.9 -99.99 -9.99
2018/12/13 19:24 EST    0.40   1.17    5  137    6  45.7 -99.9 1027.0 -9.9 -9.999 -99.9 -99.99 -9.99
2018/12/13 19:30 EST    0.42   1.19    5  126    6  45.7 -99.9 1027.0 -9.9 -9.999 -99.9 -99.99 -9.99
2018/12/13 19:36 EST    0.44   1.22    4  130    6  45.7 -99.9 1027.2 -9.9 -9.999 -99.9 -99.99 -9.99
2018/12/13 19:42 EST    0.46   1.23    4  147    5  45.5 -99.9 1027.4 -9.9 -9.999 -99.9 -99.99 -9.99
2018/12/13 19:48 EST    0.49   1.28    4  149    6  45.5 -99.9 1027.4 -9.9 -9.999 -99.9 -99.99 -9.99
2018/12/13 19:54 EST    0.52   1.32    3  142    5  45.5 -99.9 1027.5 -9.9 -9.999 -99.9 -99.99 -9.99
2018/12/13 20:00 EST    0.55   1.36    2  122    3  45.5 -99.9 1027.5 -9.9 -9.999 -99.9 -99.99 -9.99
2018/12/13 20:06 EST    0.58   1.39    3  123    4  45.5 -99.9 1027.5 -9.9 -9.999 -99.9 -99.99 -9.99
2018/12/13 20:12 EST    0.61   1.41    4  136    4  45.5 -99.9 1027.5 -9.9 -9.999 -99.9 -99.99 -9.99
2018/12/13 20:18 EST    0.64   1.44    4  141    5  45.3 -99.9 1027.4 -9.9 -9.999 -99.9 -99.99 -9.99
2018/12/13 20:24 EST    0.68   1.47    5  142    6  45.3 -99.9 1027.4 -9.9 -9.999 -99.9 -99.99 -9.99
2018/12/13 20:30 EST    0.72   1.51    5  151    6  45.5 -99.9 1027.5 -9.9 -9.999 -99.9 -99.99 -9.99
2018/12/13 20:36 EST    0.76   1.54    5  163    6  45.5 -99.9 1027.5 -9.9 -9.999 -99.9 -99.99 -9.99
2018/12/13 20:42 EST    0.80   1.60    4  167    6  45.3 -99.9 1027.5 -9.9 -9.999 -99.9 -99.99 -9.99
2018/12/13 20:48 EST    0.84   1.63    4  168    6  45.3 -99.9 1027.5 -9.9 -9.999 -99.9 -99.99 -9.99
2018/12/13 20:54 EST    0.88   1.68    4  169    6  45.3 -99.9 1027.5 -9.9 -9.999 -99.9 -99.99 -9.99
2018/12/13 21:00 EST    0.92   1.75    4  177    5  45.3 -99.9 1027.6 -9.9 -9.999 -99.9 -99.99 -9.99
2018/12/13 21:06 EST    0.97   1.81    3  180    5  45.1 -99.9 1027.5 -9.9 -9.999 -99.9 -99.99 -9.99
2018/12/13 21:12 EST    1.01   1.85    4  168    5  45.1 -99.9 1027.4 -9.9 -9.999 -99.9 -99.99 -9.99
2018/12/13 21:18 EST    1.06   1.95    3  161    4  45.0 -99.9 1027.5 -9.9 -9.999 -99.9 -99.99 -9.99
2018/12/13 21:24 EST    1.10   1.98    3  149    3  45.0 -99.9 1027.5 -9.9 -9.999 -99.9 -99.99 -9.99
2018/12/13 21:30 EST    1.15   2.03    3  139    4  45.0 -99.9 1027.5 -9.9 -9.999 -99.9 -99.99 -9.99
2018/12/13 21:36 EST    1.20   2.09    3  142    4  45.0 -99.9 1027.5 -9.9 -9.999 -99.9 -99.99 -9.99
2018/12/13 21:42 EST    1.24   2.16    3  151    3  45.1 -99.9 1027.5 -9.9 -9.999 -99.9 -99.99 -9.99
2018/12/13 21:48 EST    1.29   2.18    3  148    4  45.1 -99.9 1027.4 -9.9 -9.999 -99.9 -99.99 -9.99
2018/12/13 21:54 EST    1.34   2.24    3  128    5  45.3 -99.9 1027.6 -9.9 -9.999 -99.9 -99.99 -9.99
2018/12/13 22:00 EST    1.38   2.27    4  138    4  45.3 -99.9 1027.7 -9.9 -9.999 -99.9 -99.99 -9.99
2018/12/13 22:06 EST    1.43   2.34    4  118    5  45.3 -99.9 1027.7 -9.9 -9.999 -99.9 -99.99 -9.99
2018/12/13 22:12 EST    1.48   2.36    5  107    7  45.1 -99.9 1027.6 -9.9 -9.999 -99.9 -99.99 -9.99
2018/12/13 22:18 EST    1.52   2.42    4  110    5  45.1 -99.9 1027.7 -9.9 -9.999 -99.9 -99.99 -9.99
2018/12/13 22:24 EST    1.57   2.47    4  100    5  45.1 -99.9 1027.7 -9.9 -9.999 -99.9 -99.99 -9.99
2018/12/13 22:30 EST    1.61   2.50    5   83    6  45.0 -99.9 1027.8 -9.9 -9.999 -99.9 -99.99 -9.99
2018/12/13 22:36 EST    1.66   2.55    6   86    7  45.0 -99.9 1027.7 -9.9 -9.999 -99.9 -99.99 -9.99
2018/12/13 22:42 EST    1.70   2.58    5   82    7  45.1 -99.9 1027.8 -9.9 -9.999 -99.9 -99.99 -9.99
2018/12/13 22:48 EST    1.74   2.58    7   75    8  45.1 -99.9 1027.6 -9.9 -9.999 -99.9 -99.99 -9.99
2018/12/13 22:54 EST    1.78   2.62    9   83    9  44.8 -99.9 1027.5 -9.9 -9.999 -99.9 -99.99 -9.99
2018/12/13 23:00 EST    1.82   2.64    8   83    9  44.8 -99.9 1027.6 -9.9 -9.999 -99.9 -99.99 -9.99
2018/12/13 23:06 EST    1.86   2.70    7   83    9  44.6 -99.9 1027.6 -9.9 -9.999 -99.9 -99.99 -9.99
2018/12/13 23:12 EST    1.90   2.72    7   83    9  44.6 -99.9 1027.5 -9.9 -9.999 -99.9 -99.99 -9.99
2018/12/13 23:18 EST    1.93   2.80    8   90   10  44.6 -99.9 1027.5 -9.9 -9.999 -99.9 -99.99 -9.99
2018/12/13 23:24 EST    1.96   2.84    7   85    9  44.8 -99.9 1027.6 -9.9 -9.999 -99.9 -99.99 -9.99
2018/12/13 23:30 EST    1.99   2.86    7   92    8  44.8 -99.9 1027.6 -9.9 -9.999 -99.9 -99.99 -9.99
2018/12/13 23:36 EST    2.02   2.95    6   98    7  44.8 -99.9 1027.8 -9.9 -9.999 -99.9 -99.99 -9.99
2018/12/13 23:42 EST    2.04   2.97    5  108    6  44.8 -99.9 1027.9 -9.9 -9.999 -99.9 -99.99 -9.99
2018/12/13 23:48 EST    2.06   2.98    6  108    7  44.8 -99.9 1027.8 -9.9 -9.999 -99.9 -99.99 -9.99
2018/12/13 23:54 EST    2.08   3.02    6  106    7  44.8 -99.9 1027.8 -9.9 -9.999 -99.9 -99.99 -9.99
2018/12/14 00:00 EST    2.10   3.03    6  108    7  44.8 -99.9 1027.7 -9.9 -9.999 -99.9 -99.99 -9.99
2018/12/14 00:06 EST    2.11   3.06    5  103    7  44.8 -99.9 1027.6 -9.9 -9.999 -99.9 -99.99 -9.99
2018/12/14 00:12 EST    2.13   3.11    6  108    7  44.6 -99.9 1027.6 -9.9 -9.999 -99.9 -99.99 -9.99
2018/12/14 00:18 EST    2.13   3.11    6   99    7  44.6 -99.9 1027.5 -9.9 -9.999 -99.9 -99.99 -9.99
2018/12/14 00:24 EST    2.14   3.10    5   98    7  44.8 -99.9 1027.5 -9.9 -9.999 -99.9 -99.99 -9.99
2018/12/14 00:30 EST    2.14   3.13    5  100    6  44.8 -99.9 1027.5 -9.9 -9.999 -99.9 -99.99 -9.99
2018/12/14 00:36 EST    2.14   3.13    4  106    6  44.6 -99.9 1027.5 -9.9 -9.999 -99.9 -99.99 -9.99
2018/12/14 00:42 EST    2.14   3.13    4  119    5  44.8 -99.9 1027.6 -9.9 -9.999 -99.9 -99.99 -9.99
2018/12/14 00:48 EST    2.14   3.11    3  104    5  44.8 -99.9 1027.6 -9.9 -9.999 -99.9 -99.99 -9.99
2018/12/14 00:54 EST    2.13   3.10    4   98    5  44.8 -99.9 1027.6 -9.9 -9.999 -99.9 -99.99 -9.99
2018/12/14 01:00 EST    2.12   3.09    4   99    5  45.0 -99.9 1027.6 -9.9 -9.999 -99.9 -99.99 -9.99
2018/12/14 01:06 EST    2.11   3.09    5   99    5  45.1 -99.9 1027.6 -9.9 -9.999 -99.9 -99.99 -9.99
2018/12/14 01:12 EST    2.10   3.08    5   96    6  45.1 -99.9 1027.5 -9.9 -9.999 -99.9 -99.99 -9.99
2018/12/14 01:18 EST    2.08   3.08    6   88    6  45.1 -99.9 1027.4 -9.9 -9.999 -99.9 -99.99 -9.99
2018/12/14 01:24 EST    2.07   3.05    6   90    7  45.1 -99.9 1027.3 -9.9 -9.999 -99.9 -99.99 -9.99
2018/12/14 01:30 EST    2.05   3.06    6   84    8  45.1 -99.9 1027.3 -9.9 -9.999 -99.9 -99.99 -9.99
2018/12/14 01:36 EST    2.03   3.05    6   82    7  45.1 -99.9 1027.2 -9.9 -9.999 -99.9 -99.99 -9.99
2018/12/14 01:42 EST    2.00   3.02    5   84    7  45.3 -99.9 1027.4 -9.9 -9.999 -99.9 -99.99 -9.99
2018/12/14 01:48 EST    1.98   2.97    4   90    6  45.1 -99.9 1027.7 -9.9 -9.999 -99.9 -99.99 -9.99
2018/12/14 01:54 EST    1.96 -99.99 -999 -999 -999 -99.9 -99.9 -999.9 -9.9 -9.999 -99.9 -99.99 -9.99
2018/12/14 02:00 EST    1.93 -99.99 -999 -999 -999 -99.9 -99.9 -999.9 -9.9 -9.999 -99.9 -99.99 -9.99
2018/12/14 02:06 EST    1.90 -99.99 -999 -999 -999 -99.9 -99.9 -999.9 -9.9 -9.999 -99.9 -99.99 -9.99
2018/12/14 02:12 EST    1.87 -99.99 -999 -999 -999 -99.9 -99.9 -999.9 -9.9 -9.999 -99.9 -99.99 -9.99
2018/12/14 02:18 EST    1.84 -99.99 -999 -999 -999 -99.9 -99.9 -999.9 -9.9 -9.999 -99.9 -99.99 -9.99
2018/12/14 02:24 EST    1.81 -99.99 -999 -999 -999 -99.9 -99.9 -999.9 -9.9 -9.999 -99.9 -99.99 -9.99
2018/12/14 02:30 EST    1.78 -99.99 -999 -999 -999 -99.9 -99.9 -999.9 -9.9 -9.999 -99.9 -99.99 -9.99
2018/12/14 02:36 EST    1.74 -99.99 -999 -999 -999 -99.9 -99.9 -999.9 -9.9 -9.999 -99.9 -99.99 -9.99
2018/12/14 02:42 EST    1.71   2.72    4  128    4  46.2 -99.9 1027.7 -9.9 -9.999 -99.9 -99.99 -9.99
2018/12/14 02:48 EST    1.67   2.69    4  156    4  45.9 -99.9 1027.7 -9.9 -9.999 -99.9 -99.99 -9.99
2018/12/14 02:54 EST    1.64   2.64    4  181    4  45.3 -99.9 1027.6 -9.9 -9.999 -99.9 -99.99 -9.99
2018/12/14 03:00 EST    1.60   2.64    4  178    4  45.0 -99.9 1027.5 -9.9 -9.999 -99.9 -99.99 -9.99
2018/12/14 03:06 EST    1.56   2.59    4  178    5  44.8 -99.9 1027.4 -9.9 -9.999 -99.9 -99.99 -9.99
2018/12/14 03:12 EST    1.52   2.56    5  177    5  44.8 -99.9 1027.3 -9.9 -9.999 -99.9 -99.99 -9.99
2018/12/14 03:18 EST    1.48   2.51    4  164    5  44.8 -99.9 1027.3 -9.9 -9.999 -99.9 -99.99 -9.99
2018/12/14 03:24 EST    1.44   2.48    4  144    5  44.6 -99.9 1027.1 -9.9 -9.999 -99.9 -99.99 -9.99
2018/12/14 03:30 EST    1.40   2.46    4  151    4  44.2 -99.9 1027.1 -9.9 -9.999 -99.9 -99.99 -9.99
2018/12/14 03:36 EST    1.36   2.42    5  157    6  44.4 -99.9 1027.2 -9.9 -9.999 -99.9 -99.99 -9.99
2018/12/14 03:42 EST    1.32   2.39    5  156    6  44.4 -99.9 1027.3 -9.9 -9.999 -99.9 -99.99 -9.99
2018/12/14 03:48 EST    1.28   2.35    5  155    6  44.6 -99.9 1027.3 -9.9 -9.999 -99.9 -99.99 -9.99
2018/12/14 03:54 EST    1.24   2.32    6  148    7  44.6 -99.9 1027.2 -9.9 -9.999 -99.9 -99.99 -9.99
2018/12/14 04:00 EST    1.19   2.26    6  142    8  44.6 -99.9 1027.0 -9.9 -9.999 -99.9 -99.99 -9.99
2018/12/14 04:06 EST    1.15   2.21    8  132    8  44.8 -99.9 1026.7 -9.9 -9.999 -99.9 -99.99 -9.99
2018/12/14 04:12 EST    1.11   2.15    8  129    9  44.8 -99.9 1026.5 -9.9 -9.999 -99.9 -99.99 -9.99
2018/12/14 04:18 EST    1.07   2.10    7  122    9  44.8 -99.9 1026.4 -9.9 -9.999 -99.9 -99.99 -9.99
2018/12/14 04:24 EST    1.03   2.05    7  117    9  45.0 -99.9 1026.3 -9.9 -9.999 -99.9 -99.99 -9.99
2018/12/14 04:30 EST    0.99   2.02    7  112    8  45.0 -99.9 1026.2 -9.9 -9.999 -99.9 -99.99 -9.99
2018/12/14 04:36 EST    0.95   1.97    7  107    9  45.0 -99.9 1026.1 -9.9 -9.999 -99.9 -99.99 -9.99
2018/12/14 04:42 EST    0.91   1.94    7  112    9  45.1 -99.9 1026.2 -9.9 -9.999 -99.9 -99.99 -9.99
2018/12/14 04:48 EST    0.88   1.88    6  122    8  45.3 -99.9 1026.5 -9.9 -9.999 -99.9 -99.99 -9.99
2018/12/14 04:54 EST    0.84   1.83    5  122    7  45.3 -99.9 1026.5 -9.9 -9.999 -99.9 -99.99 -9.99
2018/12/14 05:00 EST    0.81   1.84    4  113    5  45.3 -99.9 1026.5 -9.9 -9.999 -99.9 -99.99 -9.99
2018/12/14 05:06 EST    0.77   1.79    4  110    4  45.1 -99.9 1026.6 -9.9 -9.999 -99.9 -99.99 -9.99
2018/12/14 05:12 EST    0.74   1.77    4  104    5  45.1 -99.9 1026.6 -9.9 -9.999 -99.9 -99.99 -9.99
2018/12/14 05:18 EST    0.71   1.71    3  107    5  45.1 -99.9 1026.8 -9.9 -9.999 -99.9 -99.99 -9.99
2018/12/14 05:24 EST    0.68   1.66    3   99    4  45.1 -99.9 1026.9 -9.9 -9.999 -99.9 -99.99 -9.99
2018/12/14 05:30 EST    0.66   1.64    2  102    3  45.0 -99.9 1027.0 -9.9 -9.999 -99.9 -99.99 -9.99
2018/12/14 05:36 EST    0.63   1.61    3  119    4  45.1 -99.9 1027.1 -9.9 -9.999 -99.9 -99.99 -9.99
2018/12/14 05:42 EST    0.61   1.58    2  122    4  45.1 -99.9 1027.2 -9.9 -9.999 -99.9 -99.99 -9.99
2018/12/14 05:48 EST    0.59   1.55    2   99    3  45.1 -99.9 1027.2 -9.9 -9.999 -99.9 -99.99 -9.99
2018/12/14 05:54 EST    0.57   1.54    2   98    3  45.1 -99.9 1027.3 -9.9 -9.999 -99.9 -99.99 -9.99
2018/12/14 06:00 EST    0.55   1.51    2   91    3  45.1 -99.9 1027.4 -9.9 -9.999 -99.9 -99.99 -9.99
2018/12/14 06:06 EST    0.54   1.50    1   58    2  45.0 -99.9 1027.5 -9.9 -9.999 -99.9 -99.99 -9.99
2018/12/14 06:12 EST    0.52   1.48    0  352    1  44.6 -99.9 1027.7 -9.9 -9.999 -99.9 -99.99 -9.99
2018/12/14 06:18 EST    0.51   1.42    8  308    9  44.2 -99.9 1028.0 -9.9 -9.999 -99.9 -99.99 -9.99
2018/12/14 06:24 EST    0.50   1.35    9  318   10  44.1 -99.9 1028.0 -9.9 -9.999 -99.9 -99.99 -9.99
2018/12/14 06:30 EST    0.50   1.34    8  324    9  43.9 -99.9 1028.0 -9.9 -9.999 -99.9 -99.99 -9.99
2018/12/14 06:36 EST    0.49   1.33    7  324    8  44.1 -99.9 1028.1 -9.9 -9.999 -99.9 -99.99 -9.99
2018/12/14 06:42 EST    0.49   1.34    8  325    9  44.4 -99.9 1028.3 -9.9 -9.999 -99.9 -99.99 -9.99
2018/12/14 06:48 EST    0.49   1.33    9  332   10  44.2 -99.9 1028.4 -9.9 -9.999 -99.9 -99.99 -9.99
2018/12/14 06:54 EST    0.49   1.35    9  334   10  44.1 -99.9 1028.5 -9.9 -9.999 -99.9 -99.99 -9.99
2018/12/14 07:00 EST    0.49   1.35    9  338   10  44.1 -99.9 1028.6 -9.9 -9.999 -99.9 -99.99 -9.99
2018/12/14 07:06 EST    0.50   1.36    7  347    8  43.9 -99.9 1028.5 -9.9 -9.999 -99.9 -99.99 -9.99
2018/12/14 07:12 EST    0.50   1.38    7  356    8  43.9 -99.9 1028.5 -9.9 -9.999 -99.9 -99.99 -9.99
2018/12/14 07:18 EST    0.51   1.40    8  352    9  43.9 -99.9 1028.4 -9.9 -9.999 -99.9 -99.99 -9.99
2018/12/14 07:24 EST    0.53   1.40    8    5    8  44.1 -99.9 1028.2 -9.9 -9.999 -99.9 -99.99 -9.99
2018/12/14 07:30 EST    0.54   1.44    7   12    8  44.1 -99.9 1028.1 -9.9 -9.999 -99.9 -99.99 -9.99
2018/12/14 07:36 EST    0.56   1.44    7    8    8  44.1 -99.9 1028.2 -9.9 -9.999 -99.9 -99.99 -9.99
2018/12/14 07:42 EST    0.58   1.47    7    3    8  44.1 -99.9 1028.2 -9.9 -9.999 -99.9 -99.99 -9.99
2018/12/14 07:48 EST    0.60   1.51    6   10    8  44.1 -99.9 1028.2 -9.9 -9.999 -99.9 -99.99 -9.99
2018/12/14 07:54 EST    0.62   1.52    8    9    9  44.1 -99.9 1028.3 -9.9 -9.999 -99.9 -99.99 -9.99
2018/12/14 08:00 EST    0.64   1.55    9    8   10  44.1 -99.9 1028.4 -9.9 -9.999 -99.9 -99.99 -9.99
2018/12/14 08:06 EST    0.67   1.58    9   19   10  44.1 -99.9 1028.4 -9.9 -9.999 -99.9 -99.99 -9.99
2018/12/14 08:12 EST    0.70   1.61    8   13    9  44.1 -99.9 1028.4 -9.9 -9.999 -99.9 -99.99 -9.99
2018/12/14 08:18 EST    0.73   1.61    7   18    9  44.1 -99.9 1028.5 -9.9 -9.999 -99.9 -99.99 -9.99
2018/12/14 08:24 EST    0.76   1.64    7   28    9  44.1 -99.9 1028.4 -9.9 -9.999 -99.9 -99.99 -9.99
2018/12/14 08:30 EST    0.79   1.67    9   30   10  44.1 -99.9 1028.3 -9.9 -9.999 -99.9 -99.99 -9.99
2018/12/14 08:36 EST    0.83   1.70    8   32    9  44.1 -99.9 1028.4 -9.9 -9.999 -99.9 -99.99 -9.99
2018/12/14 08:42 EST    0.86   1.76    8   39    9  44.2 -99.9 1028.4 -9.9 -9.999 -99.9 -99.99 -9.99
2018/12/14 08:48 EST    0.90   1.81    8   46    9  44.2 -99.9 1028.3 -9.9 -9.999 -99.9 -99.99 -9.99
2018/12/14 08:54 EST    0.94   1.86    8   48    9  44.4 -99.9 1028.3 -9.9 -9.999 -99.9 -99.99 -9.99
2018/12/14 09:00 EST    0.98   1.86    9   47   10  44.4 -99.9 1028.3 -9.9 -9.999 -99.9 -99.99 -9.99
2018/12/14 09:06 EST    1.02   1.91    9   54   10  44.6 -99.9 1028.3 -9.9 -9.999 -99.9 -99.99 -9.99
2018/12/14 09:12 EST    1.06   1.97    9   56   10  44.8 -99.9 1028.3 -9.9 -9.999 -99.9 -99.99 -9.99
2018/12/14 09:18 EST    1.11   2.01    9   57   10  44.8 -99.9 1028.2 -9.9 -9.999 -99.9 -99.99 -9.99
2018/12/14 09:24 EST    1.15   2.05   10   60   10  45.0 -99.9 1028.1 -9.9 -9.999 -99.9 -99.99 -9.99
2018/12/14 09:30 EST    1.20   2.10   10   65   12  45.3 -99.9 1027.9 -9.9 -9.999 -99.9 -99.99 -9.99
2018/12/14 09:36 EST    1.24   2.12    9   71   10  46.2 -99.9 1027.8 -9.9 -9.999 -99.9 -99.99 -9.99
2018/12/14 09:42 EST    1.29   2.15    8   75   11  46.0 -99.9 1027.8 -9.9 -9.999 -99.9 -99.99 -9.99
2018/12/14 09:48 EST    1.33   2.21    7   77    9  45.9 -99.9 1027.9 -9.9 -9.999 -99.9 -99.99 -9.99
2018/12/14 09:54 EST    1.38   2.24    6   78    8  45.9 -99.9 1027.8 -9.9 -9.999 -99.9 -99.99 -9.99
2018/12/14 10:00 EST    1.43   2.32    5   75    8  46.0 -99.9 1027.8 -9.9 -9.999 -99.9 -99.99 -9.99
2018/12/14 10:06 EST    1.48   2.37    6   73    8  46.4 -99.9 1027.8 -9.9 -9.999 -99.9 -99.99 -9.99
2018/12/14 10:12 EST    1.52   2.42    6   80    8  46.4 -99.9 1027.7 -9.9 -9.999 -99.9 -99.99 -9.99
2018/12/14 10:18 EST    1.57   2.48    7   80    8  46.2 -99.9 1027.5 -9.9 -9.999 -99.9 -99.99 -9.99
2018/12/14 10:24 EST    1.62   2.53    7   81    9  46.2 -99.9 1027.3 -9.9 -9.999 -99.9 -99.99 -9.99
2018/12/14 10:30 EST    1.67   2.60    6   82    9  46.0 -99.9 1027.3 -9.9 -9.999 -99.9 -99.99 -9.99
2018/12/14 10:36 EST    1.71   2.64    8   83    9  46.2 -99.9 1027.1 -9.9 -9.999 -99.9 -99.99 -9.99
2018/12/14 10:42 EST    1.76   2.68    7   84    9  46.0 -99.9 1027.1 -9.9 -9.999 -99.9 -99.99 -9.99
2018/12/14 10:48 EST    1.81   2.72    7   89    8  45.9 -99.9 1027.0 -9.9 -9.999 -99.9 -99.99 -9.99
2018/12/14 10:54 EST    1.85   2.75    8   89   10  46.0 -99.9 1026.8 -9.9 -9.999 -99.9 -99.99 -9.99
2018/12/14 11:00 EST    1.89   2.80    9   85   11  46.4 -99.9 1026.6 -9.9 -9.999 -99.9 -99.99 -9.99
2018/12/14 11:06 EST    1.94   2.86   10   86   11  46.6 -99.9 1026.4 -9.9 -9.999 -99.9 -99.99 -9.99
2018/12/14 11:12 EST    1.98 -99.99 -999 -999 -999 -99.9 -99.9 -999.9 -9.9 -9.999 -99.9 -99.99 -9.99
2018/12/14 11:18 EST    2.02 -99.99 -999 -999 -999 -99.9 -99.9 -999.9 -9.9 -9.999 -99.9 -99.99 -9.99
2018/12/14 11:24 EST    2.06 -99.99 -999 -999 -999 -99.9 -99.9 -999.9 -9.9 -9.999 -99.9 -99.99 -9.99

Revised: 08/08/2018
NOAA / National Ocean Service
Web site owner: Center for Operational Oceanographic Products and Services